| time (UTC) | temp C | wind direction | speed KPH | gust KPH | rain 1hr cm | rain 24hr cm | rain mn cm | humidity % | barometer mb |
| 20260507113510 | 10 | 254 | 8.0 | 14.5 | 0.00 | 0.00 | 0.00 | 53 | 1020.1 |
| 20260507113409 | 10 | 269 | 9.7 | 14.5 | 0.00 | 0.00 | 0.00 | 53 | 1020.1 |
| 20260507113319 | 10 | 279 | 8.0 | 16.1 | 0.00 | 0.00 | 0.00 | 53 | 1020.1 |
| 20260507113111 | 10 | 261 | 9.7 | 17.7 | 0.00 | 0.00 | 0.00 | 52 | 1020.1 |
| 20260507113010 | 10 | 262 | 6.4 | 17.7 | 0.00 | 0.00 | 0.00 | 53 | 1020.1 |
| 20260507112911 | 10 | 263 | 8.0 | 19.3 | 0.00 | 0.00 | 0.00 | 53 | 1020.1 |
| 20260507112815 | 10 | 286 | 8.0 | 19.3 | 0.00 | 0.00 | 0.00 | 53 | 1020.1 |
| 20260507112608 | 10 | 296 | 11.3 | 19.3 | 0.00 | 0.00 | 0.00 | 52 | 1020.1 |
| 20260507112509 | 10 | 264 | 12.9 | 19.3 | 0.00 | 0.00 | 0.00 | 52 | 1020.1 |
| 20260507112409 | 10 | 282 | 11.3 | 19.3 | 0.00 | 0.00 | 0.00 | 52 | 1020.2 |
| 20260507112311 | 10 | 263 | 9.7 | 19.3 | 0.00 | 0.00 | 0.00 | 52 | 1020.2 |
| 20260507112115 | 10 | 269 | 12.9 | 19.3 | 0.00 | 0.00 | 0.00 | 52 | 1020.3 |
| 20260507112009 | 10 | 278 | 12.9 | 19.3 | 0.00 | 0.00 | 0.00 | 52 | 1020.3 |
| 20260507111911 | 10 | 276 | 12.9 | 16.1 | 0.00 | 0.00 | 0.00 | 52 | 1020.2 |
| 20260507111811 | 10 | 288 | 11.3 | 16.1 | 0.00 | 0.00 | 0.00 | 52 | 1020.3 |
| 20260507111608 | 10 | 263 | 8.0 | 16.1 | 0.00 | 0.00 | 0.00 | 52 | 1020.3 |
| 20260507111514 | 11 | 264 | 9.7 | 16.1 | 0.00 | 0.00 | 0.00 | 51 | 1020.2 |
| 20260507111410 | 11 | 269 | 12.9 | 16.1 | 0.00 | 0.00 | 0.00 | 52 | 1020.2 |
| 20260507111310 | 11 | 254 | 12.9 | 16.1 | 0.00 | 0.00 | 0.00 | 51 | 1020.1 |
| 20260507111131 | 11 | 279 | 11.3 | 16.1 | 0.00 | 0.00 | 0.00 | 51 | 1020.1 |
| 20260507111109 | 11 | 257 | 11.3 | 16.1 | 0.00 | 0.00 | 0.00 | 51 | 1020.1 |
| 20260507111051 | 11 | 253 | 9.7 | 16.1 | 0.00 | 0.00 | 0.00 | 51 | 1020.1 |
| 20260507111026 | 11 | 277 | 6.4 | 16.1 | 0.00 | 0.00 | 0.00 | 51 | 1020.2 |
| 20260507110921 | 11 | 238 | 8.0 | 16.1 | 0.00 | 0.00 | 0.00 | 51 | 1020.0 |
| 20260507110609 | 11 | 269 | 9.7 | 16.1 | 0.00 | 0.00 | 0.00 | 51 | 1020.1 |
| 20260507110511 | 11 | 269 | 11.3 | 16.1 | 0.00 | 0.00 | 0.00 | 51 | 1020.1 |
| 20260507110411 | 11 | 252 | 9.7 | 17.7 | 0.00 | 0.00 | 0.00 | 51 | 1020.2 |
| 20260507110311 | 11 | 257 | 11.3 | 20.9 | 0.00 | 0.00 | 0.00 | 51 | 1020.0 |
| 20260507110110 | 11 | 276 | 9.7 | 20.9 | 0.00 | 0.00 | 0.00 | 51 | 1020.1 |
| 20260507110011 | 11 | 297 | 11.3 | 20.9 | 0.00 | 0.00 | 0.00 | 51 | 1020.1 |
| 20260507105909 | 11 | 248 | 11.3 | 20.9 | 0.00 | 0.00 | 0.00 | 51 | 1020.0 |
| 20260507105812 | 11 | 288 | 9.7 | 20.9 | 0.00 | 0.00 | 0.00 | 51 | 1020.0 |
| 20260507105509 | 11 | 269 | 11.3 | 22.5 | 0.00 | 0.00 | 0.00 | 51 | 1019.9 |
| 20260507105408 | 11 | 252 | 11.3 | 22.5 | 0.00 | 0.00 | 0.00 | 51 | 1019.9 |
| 20260507105310 | 11 | 258 | 12.9 | 22.5 | 0.00 | 0.00 | 0.00 | 50 | 1019.8 |
| 20260507105110 | 11 | 267 | 12.9 | 22.5 | 0.00 | 0.00 | 0.00 | 50 | 1019.9 |
| 20260507105010 | 11 | 242 | 11.3 | 22.5 | 0.00 | 0.00 | 0.00 | 50 | 1019.8 |
| 20260507104908 | 11 | 251 | 11.3 | 22.5 | 0.00 | 0.00 | 0.00 | 50 | 1019.8 |
| 20260507104811 | 11 | 259 | 12.9 | 22.5 | 0.00 | 0.00 | 0.00 | 50 | 1019.9 |
| 20260507104611 | 11 | 317 | 12.9 | 22.5 | 0.00 | 0.00 | 0.00 | 50 | 1019.9 |
| 20260507104512 | 11 | 257 | 9.7 | 20.9 | 0.00 | 0.00 | 0.00 | 50 | 1019.9 |
| 20260507104409 | 11 | 271 | 9.7 | 20.9 | 0.00 | 0.00 | 0.00 | 50 | 1019.9 |
| 20260507104312 | 11 | 260 | 12.9 | 20.9 | 0.00 | 0.00 | 0.00 | 50 | 1019.9 |
| 20260507104111 | 11 | 258 | 12.9 | 20.9 | 0.00 | 0.00 | 0.00 | 50 | 1019.9 |
| 20260507104009 | 11 | 265 | 12.9 | 20.9 | 0.00 | 0.00 | 0.00 | 50 | 1019.9 |
| 20260507103909 | 11 | 269 | 12.9 | 20.9 | 0.00 | 0.00 | 0.00 | 50 | 1019.8 |
| 20260507103810 | 11 | 256 | 12.9 | 20.9 | 0.00 | 0.00 | 0.00 | 50 | 1019.8 |
| 20260507103610 | 11 | 247 | 9.7 | 19.3 | 0.00 | 0.00 | 0.00 | 50 | 1019.9 |
| 20260507103508 | 11 | 281 | 9.7 | 19.3 | 0.00 | 0.00 | 0.00 | 50 | 1019.9 |
| 20260507103409 | 11 | 263 | 11.3 | 19.3 | 0.00 | 0.00 | 0.00 | 50 | 1019.9 |
| 20260507103311 | 11 | 255 | 8.0 | 19.3 | 0.00 | 0.00 | 0.00 | 50 | 1019.9 |
| 20260507103108 | 11 | 248 | 9.7 | 19.3 | 0.00 | 0.00 | 0.00 | 49 | 1019.7 |
| 20260507103010 | 11 | 259 | 14.5 | 19.3 | 0.00 | 0.00 | 0.00 | 49 | 1019.9 |
| 20260507102909 | 11 | 266 | 12.9 | 19.3 | 0.00 | 0.00 | 0.00 | 49 | 1019.8 |
| 20260507102810 | 11 | 276 | 9.7 | 19.3 | 0.00 | 0.00 | 0.00 | 49 | 1019.8 |
| 20260507102609 | 11 | 253 | 9.7 | 19.3 | 0.00 | 0.00 | 0.00 | 49 | 1019.8 |
| 20260507102510 | 11 | 250 | 11.3 | 19.3 | 0.00 | 0.00 | 0.00 | 49 | 1019.9 |
| 20260507102409 | 11 | 239 | 8.0 | 19.3 | 0.00 | 0.00 | 0.00 | 49 | 1019.9 |
| 20260507102311 | 11 | 270 | 6.4 | 19.3 | 0.00 | 0.00 | 0.00 | 49 | 1019.9 |
| 20260507102110 | 11 | 261 | 9.7 | 19.3 | 0.00 | 0.00 | 0.00 | 49 | 1019.9 |
| 20260507102011 | 11 | 262 | 9.7 | 19.3 | 0.00 | 0.00 | 0.00 | 49 | 1019.9 |
| 20260507101909 | 11 | 240 | 9.7 | 19.3 | 0.00 | 0.00 | 0.00 | 49 | 1019.9 |
| 20260507101808 | 11 | 279 | 12.9 | 19.3 | 0.00 | 0.00 | 0.00 | 49 | 1019.9 |
| 20260507101712 | 11 | 277 | 12.9 | 19.3 | 0.00 | 0.00 | 0.00 | 49 | 1019.8 |
| 20260507101603 | 11 | 275 | 11.3 | 19.3 | 0.00 | 0.00 | 0.00 | 49 | 1019.8 |
| 20260507101527 | 11 | 295 | 12.9 | 17.7 | 0.00 | 0.00 | 0.00 | 49 | 1019.7 |
| 20260507101507 | 11 | 281 | 11.3 | 17.7 | 0.00 | 0.00 | 0.00 | 49 | 1019.7 |
| 20260507101442 | 11 | 259 | 9.7 | 17.7 | 0.00 | 0.00 | 0.00 | 49 | 1019.7 |
| 20260507101156 | 11 | 254 | 8.0 | 14.5 | 0.00 | 0.00 | 0.00 | 49 | 1019.8 |
| 20260507101058 | 11 | 269 | 8.0 | 17.7 | 0.00 | 0.00 | 0.00 | 49 | 1019.8 |
| 20260507100953 | 11 | 272 | 9.7 | 17.7 | 0.00 | 0.00 | 0.00 | 49 | 1019.8 |
| 20260507100853 | 11 | 229 | 9.7 | 17.7 | 0.00 | 0.00 | 0.00 | 49 | 1019.7 |
| 20260507100748 | 11 | 265 | 8.0 | 17.7 | 0.00 | 0.00 | 0.00 | 48 | 1019.8 |
| 20260507100643 | 11 | 261 | 8.0 | 17.7 | 0.00 | 0.00 | 0.00 | 48 | 1019.7 |
| 20260507100541 | 11 | 245 | 8.0 | 17.7 | 0.00 | 0.00 | 0.00 | 48 | 1019.6 |
| 20260507100519 | 11 | 236 | 8.0 | 17.7 | 0.00 | 0.00 | 0.00 | 48 | 1019.6 |
| 20260507100456 | 11 | 251 | 9.7 | 17.7 | 0.00 | 0.00 | 0.00 | 48 | 1019.6 |
| 20260507100431 | 11 | 244 | 11.3 | 17.7 | 0.00 | 0.00 | 0.00 | 48 | 1019.6 |
| 20260507100138 | 11 | 310 | 9.7 | 17.7 | 0.00 | 0.00 | 0.00 | 48 | 1019.6 |
| 20260507100039 | 11 | 251 | 6.4 | 16.1 | 0.00 | 0.00 | 0.00 | 48 | 1019.7 |
| 20260507095938 | 11 | 266 | 8.0 | 16.1 | 0.00 | 0.00 | 0.00 | 48 | 1019.6 |
| 20260507095838 | 11 | 257 | 9.7 | 16.1 | 0.00 | 0.00 | 0.00 | 48 | 1019.7 |
| 20260507095737 | 11 | 253 | 11.3 | 16.1 | 0.00 | 0.00 | 0.00 | 48 | 1019.7 |
| 20260507095640 | 11 | 252 | 9.7 | 16.1 | 0.00 | 0.00 | 0.00 | 48 | 1019.7 |
| 20260507095537 | 11 | 281 | 8.0 | 16.1 | 0.00 | 0.00 | 0.00 | 48 | 1019.7 |
| 20260507095439 | 11 | 252 | 6.4 | 16.1 | 0.00 | 0.00 | 0.00 | 48 | 1019.6 |
| 20260507095337 | 11 | 264 | 9.7 | 16.1 | 0.00 | 0.00 | 0.00 | 48 | 1019.6 |
| 20260507095239 | 11 | 243 | 11.3 | 16.1 | 0.00 | 0.00 | 0.00 | 48 | 1019.7 |
| 20260507095140 | 11 | 266 | 11.3 | 16.1 | 0.00 | 0.00 | 0.00 | 48 | 1019.6 |
| 20260507095040 | 11 | 274 | 9.7 | 17.7 | 0.00 | 0.00 | 0.00 | 48 | 1019.5 |
| 20260507094936 | 11 | 262 | 9.7 | 19.3 | 0.00 | 0.00 | 0.00 | 48 | 1019.6 |
| 20260507094838 | 11 | 271 | 11.3 | 19.3 | 0.00 | 0.00 | 0.00 | 48 | 1019.7 |
| 20260507094738 | 11 | 233 | 9.7 | 24.1 | 0.00 | 0.00 | 0.00 | 48 | 1019.7 |
| 20260507094639 | 11 | 227 | 9.7 | 24.1 | 0.00 | 0.00 | 0.00 | 48 | 1019.7 |
| 20260507094539 | 11 | 296 | 9.7 | 24.1 | 0.00 | 0.00 | 0.00 | 48 | 1019.6 |
| 20260507094429 | 11 | 259 | 11.3 | 24.1 | 0.00 | 0.00 | 0.00 | 48 | 1019.6 |
| 20260507094334 | 11 | 269 | 11.3 | 24.1 | 0.00 | 0.00 | 0.00 | 48 | 1019.5 |
| 20260507094228 | 11 | 263 | 9.7 | 24.1 | 0.00 | 0.00 | 0.00 | 48 | 1019.5 |
| 20260507094128 | 11 | 271 | 11.3 | 24.1 | 0.00 | 0.00 | 0.00 | 48 | 1019.5 |
| 20260507094023 | 11 | 289 | 12.9 | 24.1 | 0.00 | 0.00 | 0.00 | 48 | 1019.4 |
| 20260507093922 | 11 | 249 | 12.9 | 24.1 | 0.00 | 0.00 | 0.00 | 48 | 1019.4 |
| 20260507093823 | 11 | 276 | 12.9 | 24.1 | 0.00 | 0.00 | 0.00 | 48 | 1019.3 |
| 20260507093718 | 11 | 294 | 11.3 | 22.5 | 0.00 | 0.00 | 0.00 | 47 | 1019.2 |
| 20260507093612 | 11 | 281 | 12.9 | 22.5 | 0.00 | 0.00 | 0.00 | 48 | 1019.3 |
| 20260507093510 | 11 | 263 | 12.9 | 22.5 | 0.00 | 0.00 | 0.00 | 48 | 1019.3 |
| 20260507093408 | 11 | 267 | 14.5 | 22.5 | 0.00 | 0.00 | 0.00 | 47 | 1019.2 |
| 20260507093312 | 11 | 267 | 16.1 | 22.5 | 0.00 | 0.00 | 0.00 | 48 | 1019.2 |
| 20260507093111 | 11 | 269 | 9.7 | 22.5 | 0.00 | 0.00 | 0.00 | 48 | 1019.1 |
| 20260507093041 | 11 | 229 | 9.7 | 22.5 | 0.00 | 0.00 | 0.00 | 48 | 1019.2 |
| 20260507093019 | 11 | 264 | 12.9 | 22.5 | 0.00 | 0.00 | 0.00 | 48 | 1019.2 |
| 20260507092957 | 11 | 231 | 14.5 | 22.5 | 0.00 | 0.00 | 0.00 | 48 | 1019.1 |
| 20260507092928 | 11 | 251 | 12.9 | 22.5 | 0.00 | 0.00 | 0.00 | 48 | 1019.1 |
| 20260507092609 | 11 | 279 | 11.3 | 20.9 | 0.00 | 0.00 | 0.00 | 48 | 1019.1 |
| 20260507092510 | 11 | 267 | 9.7 | 20.9 | 0.00 | 0.00 | 0.00 | 48 | 1019.0 |
| 20260507092410 | 11 | 277 | 8.0 | 17.7 | 0.00 | 0.00 | 0.00 | 48 | 1019.1 |
| 20260507092307 | 11 | 252 | 8.0 | 17.7 | 0.00 | 0.00 | 0.00 | 48 | 1019.1 |
| 20260507092204 | 11 | 261 | 11.3 | 17.7 | 0.00 | 0.00 | 0.00 | 48 | 1019.1 |
| 20260507092102 | 11 | 257 | 12.9 | 17.7 | 0.00 | 0.00 | 0.00 | 48 | 1019.0 |
| 20260507091959 | 11 | 225 | 11.3 | 17.7 | 0.00 | 0.00 | 0.00 | 48 | 1019.0 |
| 20260507091926 | 11 | 270 | 9.7 | 17.7 | 0.00 | 0.00 | 0.00 | 48 | 1019.0 |
| 20260507091856 | 11 | 260 | 9.7 | 17.7 | 0.00 | 0.00 | 0.00 | 48 | 1019.0 |
| 20260507091828 | 11 | 276 | 11.3 | 17.7 | 0.00 | 0.00 | 0.00 | 48 | 1018.9 |
| 20260507091757 | 11 | 240 | 9.7 | 17.7 | 0.00 | 0.00 | 0.00 | 48 | 1019.0 |
| 20260507091523 | 11 | 292 | 8.0 | 17.7 | 0.00 | 0.00 | 0.00 | 48 | 1019.0 |
| 20260507091503 | 11 | 246 | 9.7 | 19.3 | 0.00 | 0.00 | 0.00 | 48 | 1019.0 |
| 20260507091438 | 11 | 261 | 12.9 | 19.3 | 0.00 | 0.00 | 0.00 | 48 | 1018.9 |
| 20260507091149 | 11 | 250 | 9.7 | 19.3 | 0.00 | 0.00 | 0.00 | 48 | 1018.9 |
| 20260507091046 | 11 | 275 | 9.7 | 19.3 | 0.00 | 0.00 | 0.00 | 48 | 1019.0 |
| 20260507090944 | 11 | 261 | 9.7 | 19.3 | 0.00 | 0.00 | 0.00 | 48 | 1019.0 |
| 20260507090847 | 11 | 269 | 8.0 | 19.3 | 0.00 | 0.00 | 0.00 | 48 | 1019.0 |
| 20260507090741 | 11 | 253 | 9.7 | 19.3 | 0.00 | 0.00 | 0.00 | 47 | 1019.0 |
| 20260507090640 | 11 | 252 | 12.9 | 19.3 | 0.00 | 0.00 | 0.00 | 47 | 1018.9 |
| 20260507090538 | 11 | 281 | 11.3 | 19.3 | 0.00 | 0.00 | 0.00 | 47 | 1019.0 |
| 20260507090437 | 11 | 232 | 9.7 | 19.3 | 0.00 | 0.00 | 0.00 | 47 | 1019.1 |
| 20260507090337 | 11 | 250 | 11.3 | 19.3 | 0.00 | 0.00 | 0.00 | 47 | 1019.0 |
| 20260507090240 | 11 | 248 | 12.9 | 19.3 | 0.00 | 0.00 | 0.00 | 47 | 1019.0 |
| 20260507090138 | 11 | 279 | 12.9 | 19.3 | 0.00 | 0.00 | 0.00 | 47 | 1018.9 |
| 20260507090037 | 11 | 261 | 9.7 | 19.3 | 0.00 | 0.00 | 0.00 | 47 | 1019.0 |
| 20260507085938 | 11 | 282 | 6.4 | 19.3 | 0.00 | 0.00 | 0.00 | 47 | 1018.9 |
| 20260507085838 | 12 | 243 | 8.0 | 19.3 | 0.00 | 0.00 | 0.00 | 47 | 1018.8 |
| 20260507085736 | 12 | 267 | 9.7 | 19.3 | 0.00 | 0.00 | 0.00 | 47 | 1018.9 |
| 20260507085639 | 12 | 267 | 9.7 | 19.3 | 0.00 | 0.00 | 0.00 | 47 | 1018.8 |
| 20260507085537 | 12 | 281 | 8.0 | 19.3 | 0.00 | 0.00 | 0.00 | 47 | 1018.8 |
| 20260507085437 | 12 | 274 | 9.7 | 19.3 | 0.00 | 0.00 | 0.00 | 47 | 1018.9 |
| 20260507085337 | 12 | 275 | 12.9 | 19.3 | 0.00 | 0.00 | 0.00 | 47 | 1018.8 |
| 20260507085237 | 12 | 265 | 9.7 | 17.7 | 0.00 | 0.00 | 0.00 | 47 | 1018.8 |
| 20260507085138 | 12 | 255 | 9.7 | 17.7 | 0.00 | 0.00 | 0.00 | 47 | 1018.7 |
| 20260507085044 | 12 | 272 | 9.7 | 17.7 | 0.00 | 0.00 | 0.00 | 47 | 1018.8 |
| 20260507085020 | 12 | 286 | 11.3 | 17.7 | 0.00 | 0.00 | 0.00 | 47 | 1018.8 |
| 20260507084956 | 12 | 244 | 11.3 | 17.7 | 0.00 | 0.00 | 0.00 | 47 | 1018.7 |
| 20260507084931 | 12 | 262 | 9.7 | 17.7 | 0.00 | 0.00 | 0.00 | 47 | 1018.9 |
| 20260507084629 | 12 | 258 | 8.0 | 17.7 | 0.00 | 0.00 | 0.00 | 47 | 1018.7 |
| 20260507084527 | 12 | 276 | 9.7 | 17.7 | 0.00 | 0.00 | 0.00 | 47 | 1018.8 |
| 20260507084426 | 12 | 261 | 9.7 | 17.7 | 0.00 | 0.00 | 0.00 | 47 | 1018.8 |
| 20260507084323 | 12 | 260 | 9.7 | 17.7 | 0.00 | 0.00 | 0.00 | 47 | 1018.8 |
| 20260507084223 | 12 | 276 | 9.7 | 17.7 | 0.00 | 0.00 | 0.00 | 47 | 1018.7 |
| 20260507084122 | 12 | 280 | 8.0 | 17.7 | 0.00 | 0.00 | 0.00 | 47 | 1018.7 |
| 20260507084019 | 12 | 290 | 9.7 | 17.7 | 0.00 | 0.00 | 0.00 | 47 | 1018.8 |
| 20260507083956 | 12 | 268 | 9.7 | 17.7 | 0.00 | 0.00 | 0.00 | 46 | 1018.7 |
| 20260507083930 | 12 | 276 | 8.0 | 17.7 | 0.00 | 0.00 | 0.00 | 46 | 1018.6 |
| 20260507083906 | 12 | 242 | 9.7 | 19.3 | 0.00 | 0.00 | 0.00 | 46 | 1018.7 |
| 20260507083835 | 12 | 260 | 9.7 | 20.9 | 0.00 | 0.00 | 0.00 | 47 | 1018.7 |
| 20260507083531 | 12 | 252 | 8.0 | 20.9 | 0.00 | 0.00 | 0.00 | 46 | 1018.6 |
| 20260507083508 | 12 | 300 | 8.0 | 20.9 | 0.00 | 0.00 | 0.00 | 47 | 1018.6 |
| 20260507083447 | 12 | 288 | 8.0 | 20.9 | 0.00 | 0.00 | 0.00 | 46 | 1018.6 |
| 20260507083424 | 12 | 281 | 8.0 | 20.9 | 0.00 | 0.00 | 0.00 | 46 | 1018.5 |
| 20260507083110 | 12 | 255 | 8.0 | 20.9 | 0.00 | 0.00 | 0.00 | 46 | 1018.6 |
| 20260507083009 | 12 | 278 | 9.7 | 20.9 | 0.00 | 0.00 | 0.00 | 46 | 1018.5 |
| 20260507082908 | 12 | 278 | 14.5 | 20.9 | 0.00 | 0.00 | 0.00 | 46 | 1018.6 |
| 20260507082812 | 12 | 275 | 11.3 | 20.9 | 0.00 | 0.00 | 0.00 | 46 | 1018.5 |
| 20260507082621 | 12 | 270 | 8.0 | 16.1 | 0.00 | 0.00 | 0.00 | 46 | 1018.5 |
| 20260507082512 | 12 | 277 | 9.7 | 16.1 | 0.00 | 0.00 | 0.00 | 46 | 1018.5 |
| 20260507082410 | 12 | 264 | 6.4 | 16.1 | 0.00 | 0.00 | 0.00 | 46 | 1018.4 |
| 20260507082312 | 12 | 257 | 6.4 | 12.9 | 0.00 | 0.00 | 0.00 | 46 | 1018.6 |
| 20260507082109 | 12 | 281 | 3.2 | 17.7 | 0.00 | 0.00 | 0.00 | 46 | 1018.6 |
| 20260507082009 | 12 | 268 | 4.8 | 17.7 | 0.00 | 0.00 | 0.00 | 45 | 1018.5 |
| 20260507081912 | 12 | 269 | 6.4 | 19.3 | 0.00 | 0.00 | 0.00 | 45 | 1018.5 |
| 20260507081811 | 12 | 273 | 8.0 | 24.1 | 0.00 | 0.00 | 0.00 | 45 | 1018.5 |
| 20260507081611 | 12 | 275 | 6.4 | 29.0 | 0.00 | 0.00 | 0.00 | 45 | 1018.4 |
| 20260507081509 | 12 | 254 | 6.4 | 29.0 | 0.00 | 0.00 | 0.00 | 45 | 1018.3 |
| 20260507081411 | 12 | 270 | 11.3 | 29.0 | 0.00 | 0.00 | 0.00 | 45 | 1018.4 |
| 20260507081310 | 12 | 271 | 14.5 | 29.0 | 0.00 | 0.00 | 0.00 | 45 | 1018.2 |
| 20260507081110 | 12 | 293 | 16.1 | 29.0 | 0.00 | 0.00 | 0.00 | 45 | 1018.1 |
| 20260507081009 | 12 | 265 | 17.7 | 29.0 | 0.00 | 0.00 | 0.00 | 44 | 1018.2 |
| 20260507080914 | 12 | 273 | 17.7 | 29.0 | 0.00 | 0.00 | 0.00 | 44 | 1018.1 |
| 20260507080811 | 12 | 265 | 16.1 | 29.0 | 0.00 | 0.00 | 0.00 | 44 | 1018.1 |
| 20260507080634 | 12 | 278 | 9.7 | 25.7 | 0.00 | 0.00 | 0.00 | 45 | 1018.1 |
| 20260507080509 | 12 | 265 | 12.9 | 25.7 | 0.00 | 0.00 | 0.00 | 44 | 1018.0 |
| 20260507080409 | 12 | 266 | 16.1 | 25.7 | 0.00 | 0.00 | 0.00 | 44 | 1018.0 |
| 20260507080313 | 12 | 255 | 16.1 | 25.7 | 0.00 | 0.00 | 0.00 | 44 | 1018.0 |
| 20260507080111 | 12 | 318 | 11.3 | 20.9 | 0.00 | 0.00 | 0.00 | 44 | 1017.9 |
| 20260507080009 | 12 | 288 | 12.9 | 19.3 | 0.00 | 0.00 | 0.00 | 44 | 1018.0 |
| 20260507075909 | 12 | 263 | 12.9 | 19.3 | 0.00 | 0.00 | 0.00 | 44 | 1017.9 |
| 20260507075810 | 12 | 286 | 12.9 | 19.3 | 0.00 | 0.00 | 0.00 | 44 | 1017.9 |
| 20260507075615 | 12 | 249 | 12.9 | 19.3 | 0.00 | 0.00 | 0.00 | 44 | 1017.9 |
| 20260507075511 | 12 | 265 | 12.9 | 19.3 | 0.00 | 0.00 | 0.00 | 44 | 1017.8 |
| 20260507075411 | 12 | 265 | 14.5 | 19.3 | 0.00 | 0.00 | 0.00 | 44 | 1017.7 |
| 20260507075311 | 12 | 284 | 12.9 | 19.3 | 0.00 | 0.00 | 0.00 | 43 | 1017.7 |
| 20260507075110 | 12 | 243 | 14.5 | 20.9 | 0.00 | 0.00 | 0.00 | 43 | 1017.7 |
| 20260507075011 | 12 | 284 | 12.9 | 20.9 | 0.00 | 0.00 | 0.00 | 43 | 1017.7 |
| 20260507074912 | 12 | 277 | 12.9 | 20.9 | 0.00 | 0.00 | 0.00 | 43 | 1017.7 |
| 20260507074812 | 12 | 277 | 14.5 | 20.9 | 0.00 | 0.00 | 0.00 | 43 | 1017.7 |
| 20260507074612 | 13 | 261 | 12.9 | 20.9 | 0.00 | 0.00 | 0.00 | 43 | 1017.6 |
| 20260507074509 | 13 | 228 | 12.9 | 20.9 | 0.00 | 0.00 | 0.00 | 43 | 1017.6 |
| 20260507074403 | 13 | 254 | 16.1 | 20.9 | 0.00 | 0.00 | 0.00 | 43 | 1017.6 |
| 20260507074300 | 13 | 251 | 17.7 | 20.9 | 0.00 | 0.00 | 0.00 | 43 | 1017.6 |
| 20260507074155 | 13 | 273 | 12.9 | 20.9 | 0.00 | 0.00 | 0.00 | 43 | 1017.6 |
| 20260507074054 | 13 | 261 | 9.7 | 20.9 | 0.00 | 0.00 | 0.00 | 43 | 1017.5 |
| 20260507073950 | 13 | 254 | 9.7 | 20.9 | 0.00 | 0.00 | 0.00 | 43 | 1017.5 |
| 20260507073849 | 13 | 245 | 11.3 | 29.0 | 0.00 | 0.00 | 0.00 | 42 | 1017.5 |
| 20260507073744 | 13 | 245 | 11.3 | 30.6 | 0.00 | 0.00 | 0.00 | 42 | 1017.5 |
| 20260507073645 | 13 | 256 | 11.3 | 30.6 | 0.00 | 0.00 | 0.00 | 42 | 1017.4 |
| 20260507073621 | 13 | 257 | 12.9 | 30.6 | 0.00 | 0.00 | 0.00 | 42 | 1017.5 |
| 20260507073524 | 13 | 233 | 14.5 | 30.6 | 0.00 | 0.00 | 0.00 | 42 | 1017.4 |
| 20260507073501 | 13 | 260 | 17.7 | 30.6 | 0.00 | 0.00 | 0.00 | 42 | 1017.5 |
| 20260507073439 | 13 | 271 | 14.5 | 30.6 | 0.00 | 0.00 | 0.00 | 42 | 1017.5 |
| 20260507073136 | 13 | 254 | 12.9 | 30.6 | 0.00 | 0.00 | 0.00 | 42 | 1017.5 |
| 20260507073037 | 13 | 252 | 17.7 | 30.6 | 0.00 | 0.00 | 0.00 | 42 | 1017.5 |
| 20260507072938 | 13 | 276 | 19.3 | 30.6 | 0.00 | 0.00 | 0.00 | 42 | 1017.4 |
| 20260507072838 | 13 | 254 | 19.3 | 29.0 | 0.00 | 0.00 | 0.00 | 42 | 1017.5 |
| 20260507072739 | 13 | 259 | 17.7 | 29.0 | 0.00 | 0.00 | 0.00 | 42 | 1017.5 |
| 20260507072639 | 13 | 261 | 12.9 | 29.0 | 0.00 | 0.00 | 0.00 | 42 | 1017.5 |
| 20260507072539 | 13 | 263 | 12.9 | 25.7 | 0.00 | 0.00 | 0.00 | 42 | 1017.4 |
| 20260507072439 | 13 | 256 | 12.9 | 25.7 | 0.00 | 0.00 | 0.00 | 42 | 1017.4 |
| 20260507072336 | 13 | 270 | 11.3 | 25.7 | 0.00 | 0.00 | 0.00 | 42 | 1017.3 |
| 20260507072238 | 13 | 265 | 11.3 | 27.4 | 0.00 | 0.00 | 0.00 | 42 | 1017.2 |
| 20260507072139 | 13 | 226 | 12.9 | 32.2 | 0.00 | 0.00 | 0.00 | 42 | 1017.2 |
| 20260507072037 | 13 | 250 | 14.5 | 33.8 | 0.00 | 0.00 | 0.00 | 42 | 1017.4 |
| 20260507071938 | 13 | 221 | 14.5 | 33.8 | 0.00 | 0.00 | 0.00 | 42 | 1017.4 |
| 20260507071838 | 13 | 272 | 19.3 | 33.8 | 0.00 | 0.00 | 0.00 | 42 | 1017.2 |
| 20260507071738 | 13 | 314 | 20.9 | 33.8 | 0.00 | 0.00 | 0.00 | 41 | 1017.2 |
| 20260507071637 | 13 | 247 | 17.7 | 33.8 | 0.00 | 0.00 | 0.00 | 42 | 1017.2 |
| 20260507071538 | 13 | 238 | 14.5 | 33.8 | 0.00 | 0.00 | 0.00 | 42 | 1017.1 |
| 20260507071434 | 13 | 242 | 14.5 | 33.8 | 0.00 | 0.00 | 0.00 | 42 | 1017.2 |
| 20260507071332 | 13 | 297 | 20.9 | 33.8 | 0.00 | 0.00 | 0.00 | 41 | 1017.2 |
| 20260507071231 | 13 | 256 | 20.9 | 33.8 | 0.00 | 0.00 | 0.00 | 41 | 1017.1 |
| 20260507071135 | 13 | 288 | 14.5 | 33.8 | 0.00 | 0.00 | 0.00 | 42 | 1017.1 |
| 20260507071027 | 13 | 271 | 12.9 | 33.8 | 0.00 | 0.00 | 0.00 | 42 | 1017.2 |
| 20260507070926 | 13 | 246 | 14.5 | 33.8 | 0.00 | 0.00 | 0.00 | 42 | 1017.2 |
| 20260507070828 | 13 | 254 | 12.9 | 33.8 | 0.00 | 0.00 | 0.00 | 41 | 1017.2 |
| 20260507070726 | 13 | 265 | 12.9 | 33.8 | 0.00 | 0.00 | 0.00 | 41 | 1017.1 |
| 20260507070623 | 13 | 309 | 17.7 | 33.8 | 0.00 | 0.00 | 0.00 | 41 | 1017.1 |
| 20260507070544 | 13 | 251 | 20.9 | 33.8 | 0.00 | 0.00 | 0.00 | 41 | 1017.1 |
| 20260507070416 | 13 | 292 | 22.5 | 33.8 | 0.00 | 0.00 | 0.00 | 41 | 1017.2 |
| 20260507070314 | 13 | 275 | 22.5 | 33.8 | 0.00 | 0.00 | 0.00 | 41 | 1017.2 |
| 20260507070109 | 13 | 292 | 11.3 | 41.8 | 0.00 | 0.00 | 0.00 | 41 | 1017.1 |
| 20260507070013 | 13 | 279 | 12.9 | 41.8 | 0.00 | 0.00 | 0.00 | 41 | 1017.0 |
| 20260507065910 | 13 | 248 | 14.5 | 41.8 | 0.00 | 0.00 | 0.00 | 41 | 1017.2 |
| 20260507065810 | 13 | 270 | 16.1 | 41.8 | 0.00 | 0.00 | 0.00 | 40 | 1016.9 |
| 20260507065623 | 13 | 260 | 19.3 | 41.8 | 0.00 | 0.00 | 0.00 | 40 | 1017.1 |
| 20260507065509 | 14 | 267 | 20.9 | 41.8 | 0.00 | 0.00 | 0.00 | 40 | 1017.1 |
| 20260507065416 | 14 | 279 | 17.7 | 41.8 | 0.00 | 0.00 | 0.00 | 40 | 1017.0 |
| 20260507065311 | 14 | 282 | 16.1 | 41.8 | 0.00 | 0.00 | 0.00 | 39 | 1017.1 |
| 20260507065108 | 14 | 262 | 17.7 | 30.6 | 0.00 | 0.00 | 0.00 | 39 | 1017.0 |
| 20260507065011 | 14 | 244 | 19.3 | 30.6 | 0.00 | 0.00 | 0.00 | 39 | 1017.0 |
| 20260507064909 | 14 | 269 | 17.7 | 30.6 | 0.00 | 0.00 | 0.00 | 39 | 1016.9 |
| 20260507064810 | 14 | 254 | 16.1 | 30.6 | 0.00 | 0.00 | 0.00 | 39 | 1016.8 |
| 20260507064612 | 14 | 280 | 14.5 | 30.6 | 0.00 | 0.00 | 0.00 | 39 | 1016.8 |
| 20260507064502 | 14 | 246 | 14.5 | 30.6 | 0.00 | 0.00 | 0.00 | 39 | 1016.7 |
| 20260507064359 | 14 | 252 | 17.7 | 30.6 | 0.00 | 0.00 | 0.00 | 39 | 1016.6 |
| 20260507064258 | 14 | 250 | 20.9 | 30.6 | 0.00 | 0.00 | 0.00 | 38 | 1016.6 |
| 20260507064153 | 14 | 243 | 20.9 | 30.6 | 0.00 | 0.00 | 0.00 | 39 | 1016.7 |
| 20260507064055 | 14 | 240 | 17.7 | 30.6 | 0.00 | 0.00 | 0.00 | 39 | 1016.8 |
| 20260507063951 | 14 | 230 | 12.9 | 30.6 | 0.00 | 0.00 | 0.00 | 39 | 1016.8 |
| 20260507063848 | 15 | 264 | 12.9 | 25.7 | 0.00 | 0.00 | 0.00 | 39 | 1016.8 |
| 20260507063748 | 15 | 280 | 14.5 | 25.7 | 0.00 | 0.00 | 0.00 | 39 | 1016.8 |
| 20260507063647 | 15 | 267 | 16.1 | 25.7 | 0.00 | 0.00 | 0.00 | 38 | 1016.7 |
| 20260507063540 | 15 | 228 | 16.1 | 25.7 | 0.00 | 0.00 | 0.00 | 38 | 1016.8 |
| 20260507063444 | 15 | 232 | 14.5 | 25.7 | 0.00 | 0.00 | 0.00 | 38 | 1016.9 |
| 20260507063337 | 15 | 260 | 16.1 | 25.7 | 0.00 | 0.00 | 0.00 | 38 | 1016.8 |
| 20260507063245 | 15 | 256 | 14.5 | 25.7 | 0.00 | 0.00 | 0.00 | 38 | 1016.9 |
| 20260507063140 | 15 | 232 | 11.3 | 25.7 | 0.00 | 0.00 | 0.00 | 38 | 1016.9 |
| 20260507063040 | 15 | 246 | 14.5 | 25.7 | 0.00 | 0.00 | 0.00 | 38 | 1016.8 |
| 20260507062945 | 15 | 269 | 16.1 | 25.7 | 0.00 | 0.00 | 0.00 | 38 | 1016.8 |
| 20260507062836 | 15 | 225 | 17.7 | 25.7 | 0.00 | 0.00 | 0.00 | 38 | 1016.8 |
| 20260507062738 | 15 | 263 | 14.5 | 24.1 | 0.00 | 0.00 | 0.00 | 39 | 1016.8 |
| 20260507062637 | 15 | 239 | 12.9 | 24.1 | 0.00 | 0.00 | 0.00 | 39 | 1016.7 |
| 20260507062537 | 15 | 276 | 14.5 | 30.6 | 0.00 | 0.00 | 0.00 | 39 | 1016.8 |
| 20260507062442 | 15 | 270 | 14.5 | 35.4 | 0.00 | 0.00 | 0.00 | 38 | 1016.9 |
| 20260507062339 | 15 | 228 | 11.3 | 35.4 | 0.00 | 0.00 | 0.00 | 39 | 1016.9 |
| 20260507062237 | 15 | 225 | 11.3 | 35.4 | 0.00 | 0.00 | 0.00 | 39 | 1016.8 |
| 20260507062136 | 15 | 234 | 12.9 | 35.4 | 0.00 | 0.00 | 0.00 | 38 | 1016.7 |
| 20260507062037 | 15 | 251 | 14.5 | 35.4 | 0.00 | 0.00 | 0.00 | 38 | 1016.7 |
| 20260507061940 | 15 | 306 | 16.1 | 35.4 | 0.00 | 0.00 | 0.00 | 38 | 1016.7 |
| 20260507061838 | 15 | 267 | 17.7 | 35.4 | 0.00 | 0.00 | 0.00 | 38 | 1016.5 |
| 20260507061737 | 15 | 259 | 17.7 | 35.4 | 0.00 | 0.00 | 0.00 | 38 | 1016.6 |
| 20260507061639 | 15 | 281 | 19.3 | 35.4 | 0.00 | 0.00 | 0.00 | 38 | 1016.6 |
| 20260507061540 | 15 | 225 | 19.3 | 35.4 | 0.00 | 0.00 | 0.00 | 38 | 1016.5 |
| 20260507061434 | 15 | 273 | 17.7 | 30.6 | 0.00 | 0.00 | 0.00 | 38 | 1016.5 |
| 20260507061335 | 15 | 274 | 16.1 | 38.6 | 0.00 | 0.00 | 0.00 | 38 | 1016.7 |
| 20260507061231 | 15 | 278 | 16.1 | 38.6 | 0.00 | 0.00 | 0.00 | 38 | 1016.5 |
| 20260507061126 | 15 | 259 | 17.7 | 38.6 | 0.00 | 0.00 | 0.00 | 37 | 1016.6 |
| 20260507061026 | 15 | 269 | 19.3 | 38.6 | 0.00 | 0.00 | 0.00 | 37 | 1016.5 |
| 20260507060931 | 15 | 255 | 17.7 | 38.6 | 0.00 | 0.00 | 0.00 | 37 | 1016.5 |
| 20260507060821 | 15 | 244 | 17.7 | 38.6 | 0.00 | 0.00 | 0.00 | 37 | 1016.4 |
| 20260507060716 | 15 | 237 | 19.3 | 38.6 | 0.00 | 0.00 | 0.00 | 37 | 1016.5 |
| 20260507060614 | 15 | 254 | 20.9 | 38.6 | 0.00 | 0.00 | 0.00 | 36 | 1016.3 |
| 20260507060526 | 15 | 234 | 20.9 | 38.6 | 0.00 | 0.00 | 0.00 | 36 | 1016.4 |
| 20260507060410 | 15 | 247 | 14.5 | 38.6 | 0.00 | 0.00 | 0.00 | 36 | 1016.4 |
| 20260507060314 | 15 | 257 | 14.5 | 30.6 | 0.00 | 0.00 | 0.00 | 36 | 1016.5 |
| 20260507060110 | 15 | 273 | 16.1 | 30.6 | 0.00 | 0.00 | 0.00 | 36 | 1016.3 |
| 20260507060042 | 15 | 273 | 16.1 | 30.6 | 0.00 | 0.00 | 0.00 | 36 | 1016.3 |
| 20260507060014 | 15 | 243 | 16.1 | 30.6 | 0.00 | 0.00 | 0.00 | 36 | 1016.2 |
| 20260507055950 | 15 | 246 | 19.3 | 30.6 | 0.00 | 0.00 | 0.00 | 35 | 1016.3 |
| 20260507055921 | 15 | 275 | 20.9 | 30.6 | 0.00 | 0.00 | 0.00 | 35 | 1016.2 |
| 20260507055612 | 15 | 258 | 19.3 | 30.6 | 0.00 | 0.00 | 0.00 | 35 | 1016.3 |
| 20260507055509 | 16 | 250 | 19.3 | 30.6 | 0.00 | 0.00 | 0.00 | 35 | 1016.3 |
| 20260507055424 | 16 | 255 | 17.7 | 30.6 | 0.00 | 0.00 | 0.00 | 35 | 1016.4 |
| 20260507055312 | 16 | 219 | 17.7 | 30.6 | 0.00 | 0.00 | 0.00 | 35 | 1016.4 |
| 20260507055109 | 16 | 214 | 12.9 | 29.0 | 0.00 | 0.00 | 0.00 | 35 | 1016.4 |
| 20260507055010 | 16 | 207 | 12.9 | 32.2 | 0.00 | 0.00 | 0.00 | 35 | 1016.4 |
| 20260507054916 | 16 | 227 | 12.9 | 32.2 | 0.00 | 0.00 | 0.00 | 35 | 1016.4 |
| 20260507054813 | 16 | 263 | 17.7 | 32.2 | 0.00 | 0.00 | 0.00 | 35 | 1016.4 |
| 20260507054612 | 16 | 226 | 16.1 | 32.2 | 0.00 | 0.00 | 0.00 | 34 | 1016.5 |
| 20260507054510 | 16 | 256 | 14.5 | 32.2 | 0.00 | 0.00 | 0.00 | 34 | 1016.5 |
| 20260507054412 | 16 | 238 | 16.1 | 43.5 | 0.00 | 0.00 | 0.00 | 34 | 1016.4 |
| 20260507054314 | 16 | 261 | 16.1 | 43.5 | 0.00 | 0.00 | 0.00 | 34 | 1016.5 |
| 20260507054113 | 16 | 234 | 12.9 | 43.5 | 0.00 | 0.00 | 0.00 | 34 | 1016.5 |
| 20260507054039 | 16 | 205 | 12.9 | 43.5 | 0.00 | 0.00 | 0.00 | 34 | 1016.5 |
| 20260507054015 | 16 | 229 | 17.7 | 43.5 | 0.00 | 0.00 | 0.00 | 34 | 1016.4 |
| 20260507053943 | 16 | 310 | 19.3 | 43.5 | 0.00 | 0.00 | 0.00 | 34 | 1016.4 |
| 20260507053634 | 16 | 275 | 22.5 | 43.5 | 0.00 | 0.00 | 0.00 | 34 | 1016.5 |
| 20260507053609 | 16 | 273 | 16.1 | 43.5 | 0.00 | 0.00 | 0.00 | 34 | 1016.4 |
| 20260507053548 | 16 | 259 | 14.5 | 32.2 | 0.00 | 0.00 | 0.00 | 34 | 1016.3 |
| 20260507053515 | 16 | 262 | 17.7 | 32.2 | 0.00 | 0.00 | 0.00 | 34 | 1016.3 |
| 20260507053421 | 16 | 255 | 17.7 | 32.2 | 0.00 | 0.00 | 0.00 | 33 | 1016.3 |
| 20260507053109 | 16 | 252 | 17.7 | 32.2 | 0.00 | 0.00 | 0.00 | 34 | 1016.2 |
| 20260507053012 | 16 | 242 | 14.5 | 32.2 | 0.00 | 0.00 | 0.00 | 33 | 1016.2 |
| 20260507052910 | 16 | 238 | 16.1 | 32.2 | 0.00 | 0.00 | 0.00 | 34 | 1016.0 |
| 20260507052812 | 16 | 243 | 19.3 | 32.2 | 0.00 | 0.00 | 0.00 | 33 | 1016.1 |
| 20260507052613 | 16 | 211 | 16.1 | 32.2 | 0.00 | 0.00 | 0.00 | 34 | 1016.1 |
| 20260507052510 | 16 | 252 | 16.1 | 27.4 | 0.00 | 0.00 | 0.00 | 34 | 1016.2 |
| 20260507052409 | 16 | 253 | 12.9 | 27.4 | 0.00 | 0.00 | 0.00 | 34 | 1016.2 |
| 20260507052310 | 16 | 220 | 12.9 | 29.0 | 0.00 | 0.00 | 0.00 | 34 | 1016.1 |
| 20260507052108 | 16 | 275 | 16.1 | 29.0 | 0.00 | 0.00 | 0.00 | 34 | 1016.1 |
| 20260507052010 | 16 | 237 | 16.1 | 29.0 | 0.00 | 0.00 | 0.00 | 34 | 1016.1 |
| 20260507051909 | 16 | 276 | 14.5 | 29.0 | 0.00 | 0.00 | 0.00 | 34 | 1016.1 |
| 20260507051810 | 16 | 250 | 14.5 | 29.0 | 0.00 | 0.00 | 0.00 | 34 | 1016.1 |
| 20260507051611 | 16 | 246 | 17.7 | 29.0 | 0.00 | 0.00 | 0.00 | 34 | 1016.0 |
| 20260507051509 | 16 | 291 | 19.3 | 29.0 | 0.00 | 0.00 | 0.00 | 34 | 1016.0 |
| 20260507051409 | 16 | 279 | 14.5 | 29.0 | 0.00 | 0.00 | 0.00 | 33 | 1016.0 |
| 20260507051311 | 16 | 250 | 17.7 | 30.6 | 0.00 | 0.00 | 0.00 | 33 | 1016.0 |
| 20260507051109 | 16 | 244 | 19.3 | 30.6 | 0.00 | 0.00 | 0.00 | 32 | 1016.0 |
| 20260507051010 | 16 | 263 | 17.7 | 30.6 | 0.00 | 0.00 | 0.00 | 33 | 1016.0 |
| 20260507050909 | 16 | 259 | 19.3 | 30.6 | 0.00 | 0.00 | 0.00 | 33 | 1015.9 |
| 20260507050814 | 16 | 267 | 20.9 | 30.6 | 0.00 | 0.00 | 0.00 | 32 | 1016.0 |
| 20260507050613 | 16 | 202 | 19.3 | 30.6 | 0.00 | 0.00 | 0.00 | 33 | 1016.1 |
| 20260507050508 | 16 | 255 | 17.7 | 30.6 | 0.00 | 0.00 | 0.00 | 33 | 1016.0 |
| 20260507050424 | 16 | 278 | 16.1 | 32.2 | 0.00 | 0.00 | 0.00 | 33 | 1015.8 |
| 20260507050323 | 16 | 213 | 14.5 | 32.2 | 0.00 | 0.00 | 0.00 | 33 | 1016.1 |
| 20260507050113 | 16 | 176 | 17.7 | 32.2 | 0.00 | 0.00 | 0.00 | 32 | 1016.1 |
| 20260507050009 | 16 | 242 | 20.9 | 32.2 | 0.00 | 0.00 | 0.00 | 32 | 1016.0 |
| 20260507045908 | 16 | 243 | 19.3 | 32.2 | 0.00 | 0.00 | 0.00 | 32 | 1016.1 |
| 20260507045812 | 16 | 262 | 17.7 | 32.2 | 0.00 | 0.00 | 0.00 | 32 | 1015.9 |
| 20260507045611 | 16 | 271 | 20.9 | 32.2 | 0.00 | 0.00 | 0.00 | 31 | 1015.9 |
| 20260507045508 | 16 | 267 | 16.1 | 32.2 | 0.00 | 0.00 | 0.00 | 32 | 1016.0 |
| 20260507045411 | 16 | 270 | 17.7 | 27.4 | 0.00 | 0.00 | 0.00 | 32 | 1016.1 |
| 20260507045310 | 16 | 254 | 17.7 | 27.4 | 0.00 | 0.00 | 0.00 | 32 | 1016.0 |
| 20260507045112 | 16 | 271 | 14.5 | 29.0 | 0.00 | 0.00 | 0.00 | 32 | 1016.0 |
| 20260507045017 | 16 | 236 | 14.5 | 29.0 | 0.00 | 0.00 | 0.00 | 32 | 1016.0 |
| 20260507044952 | 16 | 267 | 14.5 | 35.4 | 0.00 | 0.00 | 0.00 | 32 | 1015.9 |
| 20260507044920 | 16 | 215 | 11.3 | 35.4 | 0.00 | 0.00 | 0.00 | 32 | 1015.9 |
| 20260507044611 | 16 | 263 | 12.9 | 35.4 | 0.00 | 0.00 | 0.00 | 32 | 1015.8 |
| 20260507044544 | 16 | 252 | 14.5 | 35.4 | 0.00 | 0.00 | 0.00 | 32 | 1015.8 |
| 20260507044520 | 16 | 238 | 17.7 | 35.4 | 0.00 | 0.00 | 0.00 | 32 | 1015.8 |
| 20260507044449 | 16 | 265 | 19.3 | 35.4 | 0.00 | 0.00 | 0.00 | 31 | 1016.0 |
| 20260507044424 | 17 | 265 | 19.3 | 35.4 | 0.00 | 0.00 | 0.00 | 31 | 1015.8 |
| 20260507044109 | 17 | 247 | 19.3 | 35.4 | 0.00 | 0.00 | 0.00 | 32 | 1015.9 |
| 20260507044009 | 17 | 232 | 17.7 | 35.4 | 0.00 | 0.00 | 0.00 | 31 | 1015.7 |
| 20260507043910 | 17 | 244 | 17.7 | 30.6 | 0.00 | 0.00 | 0.00 | 31 | 1015.7 |
| 20260507043813 | 17 | 256 | 17.7 | 30.6 | 0.00 | 0.00 | 0.00 | 31 | 1015.7 |
| 20260507043610 | 17 | 240 | 17.7 | 30.6 | 0.00 | 0.00 | 0.00 | 32 | 1015.9 |
| 20260507043509 | 17 | 290 | 19.3 | 30.6 | 0.00 | 0.00 | 0.00 | 32 | 1015.9 |
| 20260507043414 | 17 | 221 | 16.1 | 30.6 | 0.00 | 0.00 | 0.00 | 32 | 1015.8 |
| 20260507043311 | 17 | 268 | 16.1 | 29.0 | 0.00 | 0.00 | 0.00 | 32 | 1015.9 |
| 20260507043110 | 17 | 245 | 12.9 | 29.0 | 0.00 | 0.00 | 0.00 | 32 | 1015.6 |
| 20260507043013 | 17 | 246 | 9.7 | 29.0 | 0.00 | 0.00 | 0.00 | 32 | 1015.8 |
| 20260507042911 | 17 | 242 | 11.3 | 29.0 | 0.00 | 0.00 | 0.00 | 33 | 1015.7 |
| 20260507042818 | 17 | 238 | 14.5 | 29.0 | 0.00 | 0.00 | 0.00 | 32 | 1015.6 |
| 20260507042613 | 17 | 222 | 11.3 | 29.0 | 0.00 | 0.00 | 0.00 | 32 | 1015.7 |
| 20260507042538 | 17 | 225 | 12.9 | 25.7 | 0.00 | 0.00 | 0.00 | 32 | 1015.8 |
| 20260507042513 | 17 | 252 | 11.3 | 25.7 | 0.00 | 0.00 | 0.00 | 32 | 1015.7 |
| 20260507042446 | 17 | 280 | 12.9 | 33.8 | 0.00 | 0.00 | 0.00 | 31 | 1015.7 |
| 20260507042207 | 17 | 217 | 12.9 | 35.4 | 0.00 | 0.00 | 0.00 | 32 | 1015.7 |
| 20260507042109 | 17 | 240 | 14.5 | 35.4 | 0.00 | 0.00 | 0.00 | 31 | 1015.7 |
| 20260507042008 | 16 | 266 | 17.7 | 40.2 | 0.00 | 0.00 | 0.00 | 31 | 1015.8 |
| 20260507041907 | 16 | 296 | 19.3 | 40.2 | 0.00 | 0.00 | 0.00 | 31 | 1015.7 |
| 20260507041805 | 16 | 264 | 17.7 | 40.2 | 0.00 | 0.00 | 0.00 | 31 | 1015.7 |
| 20260507041703 | 16 | 267 | 17.7 | 40.2 | 0.00 | 0.00 | 0.00 | 30 | 1015.6 |
| 20260507041600 | 16 | 263 | 20.9 | 40.2 | 0.00 | 0.00 | 0.00 | 30 | 1015.7 |
| 20260507041501 | 17 | 217 | 24.1 | 40.2 | 0.00 | 0.00 | 0.00 | 30 | 1015.6 |
| 20260507041359 | 17 | 244 | 22.5 | 40.2 | 0.00 | 0.00 | 0.00 | 30 | 1015.6 |
| 20260507041254 | 17 | 284 | 20.9 | 40.2 | 0.00 | 0.00 | 0.00 | 31 | 1015.6 |
| 20260507041152 | 17 | 243 | 20.9 | 40.2 | 0.00 | 0.00 | 0.00 | 31 | 1015.5 |
| 20260507041050 | 17 | 247 | 17.7 | 40.2 | 0.00 | 0.00 | 0.00 | 31 | 1015.5 |
| 20260507040952 | 17 | 257 | 17.7 | 32.2 | 0.00 | 0.00 | 0.00 | 31 | 1015.5 |
| 20260507040847 | 17 | 267 | 19.3 | 32.2 | 0.00 | 0.00 | 0.00 | 30 | 1015.6 |
| 20260507040749 | 17 | 273 | 19.3 | 30.6 | 0.00 | 0.00 | 0.00 | 31 | 1015.5 |
| 20260507040650 | 17 | 250 | 16.1 | 30.6 | 0.00 | 0.00 | 0.00 | 31 | 1015.4 |
| 20260507040542 | 17 | 237 | 14.5 | 30.6 | 0.00 | 0.00 | 0.00 | 32 | 1015.3 |
| 20260507040437 | 17 | 232 | 17.7 | 30.6 | 0.00 | 0.00 | 0.00 | 31 | 1015.3 |
| 20260507040349 | 17 | 233 | 19.3 | 30.6 | 0.00 | 0.00 | 0.00 | 31 | 1015.3 |
| 20260507040237 | 17 | 249 | 17.7 | 29.0 | 0.00 | 0.00 | 0.00 | 31 | 1015.3 |
| 20260507040139 | 17 | 271 | 16.1 | 29.0 | 0.00 | 0.00 | 0.00 | 32 | 1015.4 |
| 20260507040049 | 17 | 252 | 17.7 | 29.0 | 0.00 | 0.00 | 0.00 | 31 | 1015.3 |
| 20260507040030 | 17 | 238 | 19.3 | 29.0 | 0.00 | 0.00 | 0.00 | 31 | 1015.1 |
| 20260507040003 | 17 | 208 | 19.3 | 29.0 | 0.00 | 0.00 | 0.00 | 30 | 1015.2 |
| 20260507035931 | 17 | 265 | 16.1 | 43.5 | 0.00 | 0.00 | 0.00 | 31 | 1015.3 |
| 20260507035637 | 17 | 250 | 16.1 | 43.5 | 0.00 | 0.00 | 0.00 | 30 | 1015.1 |
| 20260507035539 | 17 | 203 | 19.3 | 43.5 | 0.00 | 0.00 | 0.00 | 30 | 1015.3 |
| 20260507035439 | 17 | 253 | 19.3 | 43.5 | 0.00 | 0.00 | 0.00 | 30 | 1015.2 |
| 20260507035340 | 17 | 238 | 19.3 | 43.5 | 0.00 | 0.00 | 0.00 | 29 | 1015.1 |
| 20260507035237 | 17 | 238 | 19.3 | 43.5 | 0.00 | 0.00 | 0.00 | 29 | 1015.1 |
| 20260507035139 | 17 | 229 | 19.3 | 43.5 | 0.00 | 0.00 | 0.00 | 30 | 1015.1 |
| 20260507035057 | 17 | 279 | 19.3 | 43.5 | 0.00 | 0.00 | 0.00 | 30 | 1015.1 |
| 20260507035032 | 17 | 238 | 17.7 | 43.5 | 0.00 | 0.00 | 0.00 | 30 | 1015.2 |
| 20260507035004 | 17 | 162 | 17.7 | 43.5 | 0.00 | 0.00 | 0.00 | 29 | 1015.2 |
| 20260507034929 | 17 | 238 | 20.9 | 29.0 | 0.00 | 0.00 | 0.00 | 29 | 1015.3 |
| 20260507034636 | 17 | 251 | 20.9 | 29.0 | 0.00 | 0.00 | 0.00 | 29 | 1015.1 |
| 20260507034530 | 17 | 241 | 19.3 | 29.0 | 0.00 | 0.00 | 0.00 | 29 | 1015.1 |
| 20260507034432 | 17 | 243 | 17.7 | 29.0 | 0.00 | 0.00 | 0.00 | 29 | 1015.1 |
| 20260507034331 | 17 | 261 | 20.9 | 29.0 | 0.00 | 0.00 | 0.00 | 29 | 1015.2 |
| 20260507034229 | 17 | 236 | 17.7 | 29.0 | 0.00 | 0.00 | 0.00 | 30 | 1015.1 |
| 20260507034126 | 17 | 238 | 16.1 | 29.0 | 0.00 | 0.00 | 0.00 | 31 | 1015.0 |
| 20260507034023 | 17 | 259 | 14.5 | 29.0 | 0.00 | 0.00 | 0.00 | 31 | 1014.9 |
| 20260507033922 | 17 | 275 | 14.5 | 29.0 | 0.00 | 0.00 | 0.00 | 31 | 1015.1 |
| 20260507033820 | 17 | 232 | 19.3 | 29.0 | 0.00 | 0.00 | 0.00 | 30 | 1014.9 |
| 20260507033719 | 17 | 196 | 16.1 | 29.0 | 0.00 | 0.00 | 0.00 | 30 | 1015.0 |
| 20260507033615 | 17 | 259 | 14.5 | 29.0 | 0.00 | 0.00 | 0.00 | 30 | 1015.1 |
| 20260507033515 | 17 | 240 | 16.1 | 29.0 | 0.00 | 0.00 | 0.00 | 30 | 1014.9 |
| 20260507033411 | 17 | 261 | 16.1 | 29.0 | 0.00 | 0.00 | 0.00 | 30 | 1014.9 |
| 20260507033334 | 17 | 281 | 17.7 | 29.0 | 0.00 | 0.00 | 0.00 | 30 | 1015.0 |
| 20260507033111 | 17 | 244 | 14.5 | 29.0 | 0.00 | 0.00 | 0.00 | 29 | 1015.0 |
| 20260507033010 | 17 | 233 | 16.1 | 29.0 | 0.00 | 0.00 | 0.00 | 30 | 1015.0 |
| 20260507032813 | 17 | 263 | 16.1 | 29.0 | 0.00 | 0.00 | 0.00 | 30 | 1015.0 |
| 20260507032610 | 17 | 230 | 14.5 | 25.7 | 0.00 | 0.00 | 0.00 | 30 | 1015.0 |
| 20260507032509 | 17 | 234 | 16.1 | 24.1 | 0.00 | 0.00 | 0.00 | 30 | 1015.0 |
| 20260507032409 | 17 | 281 | 14.5 | 24.1 | 0.00 | 0.00 | 0.00 | 30 | 1015.0 |
| 20260507032311 | 17 | 267 | 14.5 | 24.1 | 0.00 | 0.00 | 0.00 | 30 | 1015.0 |
| 20260507032111 | 17 | 241 | 12.9 | 24.1 | 0.00 | 0.00 | 0.00 | 29 | 1014.9 |
| 20260507032009 | 17 | 238 | 12.9 | 29.0 | 0.00 | 0.00 | 0.00 | 29 | 1015.0 |
| 20260507031909 | 17 | 257 | 14.5 | 29.0 | 0.00 | 0.00 | 0.00 | 30 | 1015.0 |
| 20260507031813 | 17 | 268 | 12.9 | 29.0 | 0.00 | 0.00 | 0.00 | 29 | 1014.9 |
| 20260507031614 | 17 | 269 | 14.5 | 29.0 | 0.00 | 0.00 | 0.00 | 30 | 1015.1 |
| 20260507031542 | 17 | 256 | 16.1 | 29.0 | 0.00 | 0.00 | 0.00 | 29 | 1015.0 |
| 20260507031517 | 17 | 275 | 20.9 | 29.0 | 0.00 | 0.00 | 0.00 | 29 | 1015.0 |
| 20260507031453 | 17 | 269 | 22.5 | 32.2 | 0.00 | 0.00 | 0.00 | 29 | 1015.2 |
| 20260507031422 | 17 | 267 | 22.5 | 32.2 | 0.00 | 0.00 | 0.00 | 29 | 1015.2 |
| 20260507031110 | 17 | 255 | 20.9 | 32.2 | 0.00 | 0.00 | 0.00 | 28 | 1015.1 |
| 20260507031043 | 17 | 270 | 19.3 | 32.2 | 0.00 | 0.00 | 0.00 | 28 | 1015.0 |
| 20260507031019 | 17 | 239 | 19.3 | 32.2 | 0.00 | 0.00 | 0.00 | 29 | 1015.1 |
| 20260507030956 | 17 | 225 | 17.7 | 32.2 | 0.00 | 0.00 | 0.00 | 29 | 1015.1 |
| 20260507030922 | 17 | 273 | 17.7 | 32.2 | 0.00 | 0.00 | 0.00 | 28 | 1015.0 |
| 20260507030608 | 17 | 281 | 20.9 | 32.2 | 0.00 | 0.00 | 0.00 | 28 | 1015.1 |
| 20260507030508 | 17 | 279 | 19.3 | 32.2 | 0.00 | 0.00 | 0.00 | 28 | 1015.0 |
| 20260507030410 | 17 | 260 | 14.5 | 32.2 | 0.00 | 0.00 | 0.00 | 29 | 1015.1 |
| 20260507030318 | 17 | 217 | 19.3 | 30.6 | 0.00 | 0.00 | 0.00 | 29 | 1015.2 |
| 20260507030109 | 17 | 277 | 17.7 | 30.6 | 0.00 | 0.00 | 0.00 | 28 | 1014.9 |
| 20260507030009 | 17 | 311 | 16.1 | 29.0 | 0.00 | 0.00 | 0.00 | 28 | 1015.0 |
| 20260507025910 | 17 | 248 | 12.9 | 29.0 | 0.00 | 0.00 | 0.00 | 30 | 1015.0 |
| 20260507025811 | 17 | 247 | 14.5 | 22.5 | 0.00 | 0.00 | 0.00 | 31 | 1015.0 |
| 20260507025613 | 17 | 233 | 11.3 | 24.1 | 0.00 | 0.00 | 0.00 | 31 | 1015.0 |
| 20260507025550 | 17 | 248 | 8.0 | 24.1 | 0.00 | 0.00 | 0.00 | 32 | 1014.9 |
| 20260507025528 | 17 | 265 | 9.7 | 24.1 | 0.00 | 0.00 | 0.00 | 32 | 1015.0 |
| 20260507025500 | 17 | 260 | 11.3 | 32.2 | 0.00 | 0.00 | 0.00 | 32 | 1015.0 |
| 20260507025208 | 17 | 265 | 11.3 | 32.2 | 0.00 | 0.00 | 0.00 | 32 | 1015.0 |
| 20260507025106 | 17 | 226 | 12.9 | 32.2 | 0.00 | 0.00 | 0.00 | 31 | 1015.0 |
| 20260507025004 | 17 | 249 | 12.9 | 32.2 | 0.00 | 0.00 | 0.00 | 32 | 1014.9 |
| 20260507024903 | 17 | 257 | 12.9 | 32.2 | 0.00 | 0.00 | 0.00 | 31 | 1014.9 |
| 20260507024803 | 17 | 244 | 11.3 | 32.2 | 0.00 | 0.00 | 0.00 | 32 | 1014.9 |
| 20260507024701 | 17 | 269 | 12.9 | 32.2 | 0.00 | 0.00 | 0.00 | 32 | 1014.8 |
| 20260507024554 | 17 | 249 | 19.3 | 32.2 | 0.00 | 0.00 | 0.00 | 31 | 1014.8 |
| 20260507024451 | 17 | 264 | 19.3 | 32.2 | 0.00 | 0.00 | 0.00 | 31 | 1015.0 |
| 20260507024351 | 17 | 275 | 17.7 | 32.2 | 0.00 | 0.00 | 0.00 | 31 | 1014.9 |
| 20260507024250 | 17 | 244 | 17.7 | 27.4 | 0.00 | 0.00 | 0.00 | 31 | 1014.8 |
| 20260507024149 | 17 | 259 | 16.1 | 27.4 | 0.00 | 0.00 | 0.00 | 32 | 1014.9 |
| 20260507024046 | 17 | 265 | 14.5 | 27.4 | 0.00 | 0.00 | 0.00 | 32 | 1014.9 |
| 20260507023944 | 17 | 250 | 16.1 | 27.4 | 0.00 | 0.00 | 0.00 | 31 | 1014.9 |
| 20260507023843 | 17 | 240 | 16.1 | 29.0 | 0.00 | 0.00 | 0.00 | 31 | 1014.9 |
| 20260507023744 | 17 | 250 | 14.5 | 30.6 | 0.00 | 0.00 | 0.00 | 31 | 1014.9 |
| 20260507023644 | 17 | 220 | 12.9 | 38.6 | 0.00 | 0.00 | 0.00 | 31 | 1014.9 |
| 20260507023540 | 17 | 250 | 14.5 | 38.6 | 0.00 | 0.00 | 0.00 | 31 | 1015.0 |
| 20260507023438 | 17 | 253 | 16.1 | 38.6 | 0.00 | 0.00 | 0.00 | 30 | 1014.9 |
| 20260507023339 | 17 | 247 | 14.5 | 38.6 | 0.00 | 0.00 | 0.00 | 30 | 1014.9 |
| 20260507023243 | 17 | 271 | 12.9 | 38.6 | 0.00 | 0.00 | 0.00 | 31 | 1014.9 |
| 20260507023137 | 17 | 273 | 12.9 | 38.6 | 0.00 | 0.00 | 0.00 | 32 | 1015.0 |
| 20260507023042 | 17 | 246 | 17.7 | 38.6 | 0.00 | 0.00 | 0.00 | 33 | 1015.0 |
| 20260507022938 | 17 | 226 | 22.5 | 38.6 | 0.00 | 0.00 | 0.00 | 32 | 1015.1 |
| 20260507022837 | 17 | 267 | 24.1 | 38.6 | 0.00 | 0.00 | 0.00 | 32 | 1014.9 |
| 20260507022736 | 17 | 274 | 22.5 | 38.6 | 0.00 | 0.00 | 0.00 | 32 | 1014.9 |
| 20260507022637 | 17 | 263 | 22.5 | 30.6 | 0.00 | 0.00 | 0.00 | 32 | 1015.1 |
| 20260507022540 | 17 | 273 | 17.7 | 30.6 | 0.00 | 0.00 | 0.00 | 32 | 1015.0 |
| 20260507022440 | 17 | 249 | 12.9 | 30.6 | 0.00 | 0.00 | 0.00 | 33 | 1015.1 |
| 20260507022341 | 17 | 259 | 12.9 | 29.0 | 0.00 | 0.00 | 0.00 | 33 | 1015.0 |
| 20260507022238 | 17 | 244 | 14.5 | 29.0 | 0.00 | 0.00 | 0.00 | 33 | 1014.9 |
| 20260507022140 | 17 | 253 | 17.7 | 29.0 | 0.00 | 0.00 | 0.00 | 32 | 1015.0 |
| 20260507022036 | 17 | 262 | 19.3 | 29.0 | 0.00 | 0.00 | 0.00 | 32 | 1015.2 |
| 20260507021930 | 17 | 266 | 17.7 | 25.7 | 0.00 | 0.00 | 0.00 | 33 | 1015.1 |
| 20260507021833 | 17 | 247 | 14.5 | 27.4 | 0.00 | 0.00 | 0.00 | 33 | 1015.1 |
| 20260507021730 | 17 | 261 | 16.1 | 29.0 | 0.00 | 0.00 | 0.00 | 33 | 1015.2 |
| 20260507021630 | 17 | 312 | 17.7 | 38.6 | 0.00 | 0.00 | 0.00 | 32 | 1015.1 |
| 20260507021528 | 17 | 252 | 17.7 | 38.6 | 0.00 | 0.00 | 0.00 | 33 | 1015.0 |
| 20260507021422 | 17 | 289 | 12.9 | 38.6 | 0.00 | 0.00 | 0.00 | 33 | 1015.4 |
| 20260507021326 | 17 | 298 | 12.9 | 38.6 | 0.00 | 0.00 | 0.00 | 32 | 1015.3 |
| 20260507021221 | 17 | 264 | 19.3 | 40.2 | 0.00 | 0.00 | 0.00 | 32 | 1015.1 |
| 20260507021119 | 17 | 181 | 20.9 | 40.2 | 0.00 | 0.00 | 0.00 | 31 | 1015.2 |
| 20260507021016 | 17 | 266 | 20.9 | 40.2 | 0.00 | 0.00 | 0.00 | 31 | 1015.2 |
| 20260507020916 | 17 | 261 | 20.9 | 40.2 | 0.00 | 0.00 | 0.00 | 31 | 1015.1 |
| 20260507020820 | 17 | 248 | 20.9 | 40.2 | 0.00 | 0.00 | 0.00 | 31 | 1015.2 |
| 20260507020613 | 17 | 254 | 24.1 | 40.2 | 0.00 | 0.00 | 0.00 | 30 | 1015.0 |
| 20260507020512 | 17 | 257 | 24.1 | 40.2 | 0.00 | 0.00 | 0.00 | 30 | 1015.0 |
| 20260507020411 | 17 | 279 | 20.9 | 40.2 | 0.00 | 0.00 | 0.00 | 31 | 1015.1 |
| 20260507020323 | 17 | 273 | 20.9 | 38.6 | 0.00 | 0.00 | 0.00 | 31 | 1015.0 |
| 20260507020109 | 17 | 247 | 24.1 | 38.6 | 0.00 | 0.00 | 0.00 | 31 | 1015.1 |
| 20260507020011 | 17 | 247 | 24.1 | 38.6 | 0.00 | 0.00 | 0.00 | 30 | 1015.1 |
| 20260507015912 | 17 | 261 | 20.9 | 38.6 | 0.00 | 0.00 | 0.00 | 31 | 1015.0 |
| 20260507015814 | 17 | 263 | 17.7 | 40.2 | 0.00 | 0.00 | 0.00 | 31 | 1014.9 |
| 20260507015610 | 17 | 290 | 22.5 | 40.2 | 0.00 | 0.00 | 0.00 | 31 | 1015.0 |
| 20260507015509 | 17 | 263 | 24.1 | 40.2 | 0.00 | 0.00 | 0.00 | 31 | 1015.1 |
| 20260507015409 | 17 | 262 | 24.1 | 40.2 | 0.00 | 0.00 | 0.00 | 30 | 1015.0 |
| 20260507015312 | 17 | 240 | 24.1 | 40.2 | 0.00 | 0.00 | 0.00 | 31 | 1014.9 |
| 20260507015109 | 17 | 263 | 24.1 | 40.2 | 0.00 | 0.00 | 0.00 | 32 | 1015.0 |
| 20260507015010 | 17 | 239 | 20.9 | 40.2 | 0.00 | 0.00 | 0.00 | 33 | 1015.1 |
| 20260507014909 | 17 | 276 | 16.1 | 40.2 | 0.00 | 0.00 | 0.00 | 37 | 1015.1 |
| 20260507014822 | 17 | 273 | 12.9 | 25.7 | 0.00 | 0.00 | 0.00 | 39 | 1015.0 |
| 20260507014609 | 17 | 253 | 16.1 | 25.7 | 0.00 | 0.00 | 0.00 | 40 | 1015.1 |
| 20260507014510 | 17 | 236 | 12.9 | 25.7 | 0.00 | 0.00 | 0.00 | 42 | 1015.1 |
| 20260507014409 | 17 | 256 | 12.9 | 33.8 | 0.00 | 0.00 | 0.00 | 44 | 1015.1 |
| 20260507014311 | 17 | 263 | 14.5 | 33.8 | 0.00 | 0.00 | 0.00 | 44 | 1015.0 |
| 20260507014110 | 16 | 271 | 17.7 | 33.8 | 0.00 | 0.00 | 0.00 | 44 | 1015.2 |
| 20260507014008 | 16 | 272 | 14.5 | 33.8 | 0.00 | 0.00 | 0.00 | 45 | 1015.1 |
| 20260507013909 | 16 | 286 | 14.5 | 33.8 | 0.00 | 0.00 | 0.00 | 46 | 1015.0 |
| 20260507013825 | 16 | 244 | 16.1 | 33.8 | 0.00 | 0.00 | 0.00 | 46 | 1015.0 |
| 20260507013609 | 16 | 234 | 17.7 | 33.8 | 0.00 | 0.00 | 0.00 | 47 | 1015.1 |
| 20260507013511 | 16 | 272 | 14.5 | 33.8 | 0.00 | 0.00 | 0.00 | 49 | 1015.1 |
| 20260507013409 | 15 | 255 | 16.1 | 29.0 | 0.00 | 0.00 | 0.00 | 50 | 1015.1 |
| 20260507013313 | 15 | 244 | 20.9 | 29.0 | 0.00 | 0.00 | 0.00 | 50 | 1015.0 |
| 20260507013112 | 15 | 251 | 16.1 | 29.0 | 0.00 | 0.00 | 0.00 | 53 | 1015.0 |
| 20260507013010 | 15 | 212 | 12.9 | 20.9 | 0.00 | 0.00 | 0.00 | 54 | 1015.2 |
| 20260507012909 | 15 | 269 | 11.3 | 20.9 | 0.00 | 0.00 | 0.00 | 55 | 1015.3 |
| 20260507012811 | 15 | 243 | 12.9 | 24.1 | 0.00 | 0.00 | 0.00 | 55 | 1015.4 |
| 20260507012610 | 15 | 220 | 11.3 | 24.1 | 0.00 | 0.00 | 0.00 | 56 | 1015.4 |
| 20260507012509 | 15 | 217 | 12.9 | 24.1 | 0.00 | 0.00 | 0.00 | 56 | 1015.4 |
| 20260507012409 | 15 | 236 | 12.9 | 24.1 | 0.00 | 0.00 | 0.00 | 56 | 1015.4 |
| 20260507012310 | 15 | 258 | 11.3 | 24.1 | 0.00 | 0.00 | 0.00 | 56 | 1015.4 |
| 20260507012108 | 15 | 249 | 14.5 | 24.1 | 0.00 | 0.00 | 0.00 | 56 | 1015.5 |
| 20260507012010 | 15 | 263 | 17.7 | 24.1 | 0.00 | 0.00 | 0.00 | 56 | 1015.4 |
| 20260507011909 | 15 | 241 | 14.5 | 24.1 | 0.00 | 0.00 | 0.00 | 55 | 1015.4 |
| 20260507011814 | 15 | 254 | 11.3 | 22.5 | 0.00 | 0.00 | 0.00 | 55 | 1015.4 |
| 20260507011608 | 15 | 223 | 14.5 | 22.5 | 0.00 | 0.00 | 0.00 | 55 | 1015.4 |
| 20260507011511 | 15 | 320 | 14.5 | 22.5 | 0.00 | 0.00 | 0.00 | 56 | 1015.4 |
| 20260507011412 | 15 | 256 | 12.9 | 22.5 | 0.00 | 0.00 | 0.00 | 56 | 1015.4 |
| 20260507011304 | 15 | 236 | 12.9 | 29.0 | 0.00 | 0.00 | 0.00 | 56 | 1015.5 |
| 20260507011159 | 15 | 250 | 12.9 | 29.0 | 0.00 | 0.00 | 0.00 | 56 | 1015.5 |
| 20260507011101 | 15 | 229 | 14.5 | 29.0 | 0.00 | 0.00 | 0.00 | 56 | 1015.4 |
| 20260507010959 | 15 | 246 | 11.3 | 29.0 | 0.00 | 0.00 | 0.00 | 56 | 1015.5 |
| 20260507010857 | 15 | 215 | 12.9 | 29.0 | 0.00 | 0.00 | 0.00 | 56 | 1015.5 |
| 20260507010752 | 15 | 240 | 14.5 | 29.0 | 0.00 | 0.00 | 0.00 | 56 | 1015.4 |
| 20260507010649 | 15 | 232 | 12.9 | 29.0 | 0.00 | 0.00 | 0.00 | 56 | 1015.5 |
| 20260507010544 | 15 | 221 | 12.9 | 29.0 | 0.00 | 0.00 | 0.00 | 56 | 1015.4 |
| 20260507010437 | 15 | 244 | 12.9 | 29.0 | 0.00 | 0.00 | 0.00 | 56 | 1015.4 |
| 20260507010339 | 15 | 247 | 9.7 | 27.4 | 0.00 | 0.00 | 0.00 | 56 | 1015.4 |
| 20260507010238 | 15 | 244 | 9.7 | 29.0 | 0.00 | 0.00 | 0.00 | 56 | 1015.4 |
| 20260507010152 | 15 | 242 | 9.7 | 29.0 | 0.00 | 0.00 | 0.00 | 56 | 1015.4 |
| 20260507010038 | 15 | 256 | 12.9 | 29.0 | 0.00 | 0.00 | 0.00 | 55 | 1015.6 |
| 20260507005938 | 15 | 258 | 11.3 | 29.0 | 0.00 | 0.00 | 0.00 | 55 | 1015.5 |
| 20260507005838 | 16 | 243 | 11.3 | 29.0 | 0.00 | 0.00 | 0.00 | 54 | 1015.5 |
| 20260507005737 | 16 | 242 | 14.5 | 29.0 | 0.00 | 0.00 | 0.00 | 54 | 1015.5 |
| 20260507005638 | 16 | 200 | 16.1 | 29.0 | 0.00 | 0.00 | 0.00 | 54 | 1015.5 |
| 20260507005541 | 16 | 197 | 12.9 | 29.0 | 0.00 | 0.00 | 0.00 | 54 | 1015.4 |
| 20260507005441 | 16 | 219 | 12.9 | 29.0 | 0.00 | 0.00 | 0.00 | 53 | 1015.3 |
| 20260507005338 | 16 | 238 | 14.5 | 38.6 | 0.00 | 0.00 | 0.00 | 53 | 1015.4 |
| 20260507005237 | 16 | 211 | 12.9 | 38.6 | 0.00 | 0.00 | 0.00 | 53 | 1015.3 |
| 20260507005138 | 16 | 192 | 16.1 | 38.6 | 0.00 | 0.00 | 0.00 | 53 | 1015.2 |
| 20260507005037 | 17 | 234 | 16.1 | 38.6 | 0.00 | 0.00 | 0.00 | 53 | 1015.2 |
| 20260507004938 | 17 | 214 | 9.7 | 38.6 | 0.00 | 0.00 | 0.00 | 53 | 1015.2 |
| 20260507004741 | 17 | 205 | 9.7 | 38.6 | 0.00 | 0.00 | 0.00 | 53 | 1015.2 |
| 20260507004636 | 17 | 157 | 12.9 | 38.6 | 0.00 | 0.00 | 0.00 | 53 | 1015.3 |
| 20260507004542 | 17 | 231 | 20.9 | 38.6 | 0.00 | 0.00 | 0.00 | 53 | 1015.1 |
| 20260507004438 | 17 | 183 | 20.9 | 38.6 | 0.00 | 0.00 | 0.00 | 53 | 1015.0 |
| 20260507004341 | 17 | 248 | 11.3 | 29.0 | 0.00 | 0.00 | 0.00 | 55 | 1015.1 |
| 20260507004238 | 18 | 232 | 9.7 | 19.3 | 0.00 | 0.00 | 0.00 | 55 | 1015.0 |
| 20260507004139 | 18 | 273 | 9.7 | 19.3 | 0.00 | 0.00 | 0.00 | 55 | 1014.9 |
| 20260507004037 | 18 | 277 | 8.0 | 19.3 | 0.00 | 0.00 | 0.00 | 55 | 1014.7 |
| 20260507003936 | 18 | 281 | 4.8 | 16.1 | 0.00 | 0.00 | 0.00 | 55 | 1014.7 |
| 20260507003837 | 18 | 264 | 6.4 | 19.3 | 0.00 | 0.00 | 0.00 | 55 | 1014.8 |
| 20260507003737 | 18 | 230 | 6.4 | 19.3 | 0.00 | 0.00 | 0.00 | 54 | 1014.8 |
| 20260507003637 | 18 | 291 | 4.8 | 19.3 | 0.00 | 0.00 | 0.00 | 55 | 1014.7 |
| 20260507003539 | 18 | 221 | 4.8 | 19.3 | 0.00 | 0.00 | 0.00 | 54 | 1014.8 |
| 20260507003438 | 18 | 241 | 6.4 | 19.3 | 0.00 | 0.00 | 0.00 | 54 | 1014.7 |
| 20260507003337 | 18 | 229 | 9.7 | 19.3 | 0.00 | 0.00 | 0.00 | 54 | 1014.7 |
| 20260507003237 | 18 | 259 | 9.7 | 19.3 | 0.00 | 0.00 | 0.00 | 55 | 1014.8 |
| 20260507003142 | 18 | 238 | 8.0 | 19.3 | 0.00 | 0.00 | 0.00 | 55 | 1014.7 |
| 20260507003112 | 18 | 240 | 11.3 | 19.3 | 0.00 | 0.00 | 0.00 | 55 | 1014.8 |
| 20260507003022 | 18 | 230 | 11.3 | 19.3 | 0.00 | 0.00 | 0.00 | 57 | 1014.7 |
| 20260507002956 | 18 | 260 | 8.0 | 17.7 | 0.00 | 0.00 | 0.00 | 56 | 1014.6 |
| 20260507002931 | 18 | 295 | 6.4 | 17.7 | 0.00 | 0.00 | 0.00 | 57 | 1014.6 |
| 20260507002638 | 18 | 279 | 8.0 | 16.1 | 0.00 | 0.00 | 0.00 | 57 | 1014.7 |
| 20260507002539 | 18 | 288 | 8.0 | 19.3 | 0.00 | 0.00 | 0.00 | 56 | 1014.7 |
| 20260507002437 | 18 | 267 | 6.4 | 19.3 | 0.00 | 0.00 | 0.00 | 57 | 1014.6 |
| 20260507002337 | 18 | 249 | 6.4 | 19.3 | 0.00 | 0.00 | 0.00 | 57 | 1014.6 |
| 20260507002237 | 17 | 254 | 8.0 | 19.3 | 0.00 | 0.00 | 0.00 | 57 | 1014.6 |
| 20260507002141 | 17 | 252 | 8.0 | 19.3 | 0.00 | 0.00 | 0.00 | 58 | 1014.5 |
| 20260507002049 | 17 | 298 | 8.0 | 19.3 | 0.00 | 0.00 | 0.00 | 58 | 1014.6 |
| 20260507002024 | 17 | 250 | 9.7 | 19.3 | 0.00 | 0.00 | 0.00 | 58 | 1014.6 |
| 20260507001957 | 17 | 266 | 11.3 | 19.3 | 0.00 | 0.00 | 0.00 | 57 | 1014.6 |
| 20260507001932 | 17 | 298 | 9.7 | 19.3 | 0.00 | 0.00 | 0.00 | 57 | 1014.7 |
| 20260507001637 | 17 | 309 | 11.3 | 19.3 | 0.00 | 0.00 | 0.00 | 57 | 1014.6 |
| 20260507001540 | 17 | 298 | 11.3 | 19.3 | 0.00 | 0.00 | 0.00 | 57 | 1014.6 |
| 20260507001436 | 17 | 313 | 6.4 | 17.7 | 0.00 | 0.00 | 0.00 | 58 | 1014.6 |
| 20260507001336 | 17 | 254 | 6.4 | 19.3 | 0.00 | 0.00 | 0.00 | 59 | 1014.6 |
| 20260507001237 | 17 | 260 | 6.4 | 19.3 | 0.00 | 0.00 | 0.00 | 59 | 1014.6 |
| 20260507001137 | 17 | 282 | 4.8 | 19.3 | 0.00 | 0.00 | 0.00 | 59 | 1014.6 |
| 20260507001039 | 17 | 238 | 6.4 | 19.3 | 0.00 | 0.00 | 0.00 | 59 | 1014.6 |
| 20260507001016 | 17 | 284 | 9.7 | 19.3 | 0.00 | 0.00 | 0.00 | 58 | 1014.7 |
| 20260507000955 | 17 | 299 | 11.3 | 19.3 | 0.00 | 0.00 | 0.00 | 57 | 1014.7 |
| 20260507000929 | 17 | 314 | 12.9 | 19.3 | 0.00 | 0.00 | 0.00 | 58 | 1014.7 |
| 20260507000638 | 17 | 318 | 14.5 | 19.3 | 0.00 | 0.00 | 0.00 | 58 | 1014.7 |
| 20260507000538 | 17 | 292 | 11.3 | 19.3 | 0.00 | 0.00 | 0.00 | 58 | 1014.7 |
| 20260507000438 | 17 | 279 | 6.4 | 19.3 | 0.00 | 0.00 | 0.00 | 58 | 1014.8 |
| 20260507000336 | 17 | 257 | 4.8 | 16.1 | 0.00 | 0.00 | 0.00 | 58 | 1014.7 |
| 20260507000242 | 17 | 254 | 6.4 | 16.1 | 0.00 | 0.00 | 0.00 | 58 | 1014.8 |
| 20260507000139 | 17 | 286 | 9.7 | 16.1 | 0.00 | 0.00 | 0.00 | 58 | 1014.8 |
| 20260507000048 | 17 | 292 | 9.7 | 16.1 | 0.00 | 0.00 | 0.00 | 59 | 1014.8 |
| 20260507000023 | 17 | 295 | 6.4 | 16.1 | 0.00 | 0.00 | 0.00 | 59 | 1014.7 |
| 20260506235958 | 17 | 271 | 8.0 | 16.1 | 0.00 | 0.00 | 0.00 | 59 | 1014.9 |
| 20260506235928 | 17 | 276 | 9.7 | 16.1 | 0.00 | 0.00 | 0.00 | 59 | 1014.8 |
| 20260506235639 | 17 | 313 | 9.7 | 16.1 | 0.00 | 0.00 | 0.00 | 58 | 1014.8 |
| 20260506235546 | 17 | 305 | 9.7 | 16.1 | 0.00 | 0.00 | 0.00 | 58 | 1014.8 |
| 20260506235438 | 17 | 269 | 9.7 | 16.1 | 0.00 | 0.00 | 0.00 | 59 | 1014.8 |
| 20260506235337 | 16 | 279 | 8.0 | 16.1 | 0.00 | 0.00 | 0.00 | 59 | 1014.9 |
| 20260506235236 | 16 | 316 | 8.0 | 16.1 | 0.00 | 0.00 | 0.00 | 59 | 1014.9 |
| 20260506235140 | 16 | 308 | 9.7 | 17.7 | 0.00 | 0.00 | 0.00 | 59 | 1014.9 |
| 20260506235046 | 16 | 302 | 9.7 | 17.7 | 0.00 | 0.00 | 0.00 | 59 | 1014.9 |
| 20260506234936 | 16 | 263 | 9.7 | 17.7 | 0.00 | 0.00 | 0.00 | 58 | 1014.9 |
| 20260506234841 | 16 | 304 | 8.0 | 17.7 | 0.00 | 0.00 | 0.00 | 58 | 1014.9 |
| 20260506234810 | 17 | 309 | 8.0 | 17.7 | 0.00 | 0.00 | 0.00 | 58 | 1014.9 |
| 20260506234740 | 17 | 327 | 8.0 | 17.7 | 0.00 | 0.00 | 0.00 | 59 | 1014.8 |
| 20260506234721 | 17 | 268 | 6.4 | 17.7 | 0.00 | 0.00 | 0.00 | 59 | 1014.8 |
| 20260506234653 | 16 | 252 | 8.0 | 17.7 | 0.00 | 0.00 | 0.00 | 58 | 1014.9 |
| 20260506234625 | 16 | 270 | 11.3 | 17.7 | 0.00 | 0.00 | 0.00 | 58 | 1014.9 |
| 20260506234602 | 16 | 270 | 8.0 | 17.7 | 0.00 | 0.00 | 0.00 | 59 | 1014.9 |
| 20260506234325 | 16 | 286 | 4.8 | 17.7 | 0.00 | 0.00 | 0.00 | 59 | 1014.8 |
| 20260506234043 | 16 | 290 | 8.0 | 17.7 | 0.00 | 0.00 | 0.00 | 59 | 1014.8 |
| 20260506234018 | 16 | 299 | 8.0 | 17.7 | 0.00 | 0.00 | 0.00 | 59 | 1014.9 |
| 20260506233957 | 16 | 288 | 9.7 | 17.7 | 0.00 | 0.00 | 0.00 | 59 | 1014.9 |
| 20260506233928 | 16 | 239 | 11.3 | 17.7 | 0.00 | 0.00 | 0.00 | 58 | 1014.9 |
| 20260506233615 | 16 | 280 | 9.7 | 16.1 | 0.00 | 0.00 | 0.00 | 59 | 1014.8 |
| 20260506233534 | 16 | 280 | 9.7 | 16.1 | 0.00 | 0.00 | 0.00 | 60 | 1014.9 |
| 20260506233511 | 16 | 267 | 6.4 | 14.5 | 0.00 | 0.00 | 0.00 | 61 | 1014.9 |
| 20260506233447 | 16 | 273 | 8.0 | 14.5 | 0.00 | 0.00 | 0.00 | 61 | 1014.9 |
| 20260506233423 | 16 | 298 | 8.0 | 14.5 | 0.00 | 0.00 | 0.00 | 61 | 1014.8 |
| 20260506233113 | 16 | 282 | 8.0 | 14.5 | 0.00 | 0.00 | 0.00 | 60 | 1014.8 |
| 20260506233010 | 16 | 314 | 8.0 | 14.5 | 0.00 | 0.00 | 0.00 | 60 | 1014.8 |
| 20260506232925 | 16 | 276 | 6.4 | 14.5 | 0.00 | 0.00 | 0.00 | 61 | 1014.7 |
| 20260506232812 | 16 | 301 | 6.4 | 16.1 | 0.00 | 0.00 | 0.00 | 61 | 1014.8 |
| 20260506232608 | 16 | 308 | 9.7 | 16.1 | 0.00 | 0.00 | 0.00 | 60 | 1014.9 |
| 20260506232510 | 16 | 299 | 9.7 | 16.1 | 0.00 | 0.00 | 0.00 | 60 | 1014.9 |
| 20260506232410 | 16 | 306 | 9.7 | 16.1 | 0.00 | 0.00 | 0.00 | 60 | 1014.8 |
| 20260506232326 | 16 | 313 | 6.4 | 16.1 | 0.00 | 0.00 | 0.00 | 60 | 1014.8 |
| 20260506232108 | 16 | 294 | 8.0 | 16.1 | 0.00 | 0.00 | 0.00 | 61 | 1014.8 |
| 20260506232011 | 16 | 290 | 9.7 | 16.1 | 0.00 | 0.00 | 0.00 | 60 | 1014.8 |
| 20260506231914 | 16 | 310 | 11.3 | 16.1 | 0.00 | 0.00 | 0.00 | 60 | 1014.8 |
| 20260506231810 | 16 | 279 | 9.7 | 16.1 | 0.00 | 0.00 | 0.00 | 60 | 1014.9 |
| 20260506231610 | 16 | 309 | 8.0 | 19.3 | 0.00 | 0.00 | 0.00 | 61 | 1014.9 |
| 20260506231520 | 16 | 265 | 9.7 | 19.3 | 0.00 | 0.00 | 0.00 | 61 | 1014.9 |
| 20260506231412 | 16 | 290 | 9.7 | 19.3 | 0.00 | 0.00 | 0.00 | 62 | 1014.9 |
| 20260506231317 | 16 | 282 | 9.7 | 19.3 | 0.00 | 0.00 | 0.00 | 62 | 1014.9 |
| 20260506231113 | 16 | 325 | 11.3 | 19.3 | 0.00 | 0.00 | 0.00 | 61 | 1014.9 |
| 20260506231014 | 16 | 281 | 11.3 | 19.3 | 0.00 | 0.00 | 0.00 | 61 | 1014.9 |
| 20260506230813 | 16 | 296 | 9.7 | 19.3 | 0.00 | 0.00 | 0.00 | 62 | 1014.9 |
| 20260506230612 | 16 | 323 | 9.7 | 14.5 | 0.00 | 0.00 | 0.00 | 62 | 1014.9 |
| 20260506230528 | 16 | 321 | 8.0 | 14.5 | 0.00 | 0.00 | 0.00 | 62 | 1014.9 |
| 20260506230410 | 16 | 323 | 9.7 | 14.5 | 0.00 | 0.00 | 0.00 | 62 | 1014.9 |
| 20260506230311 | 16 | 309 | 11.3 | 14.5 | 0.00 | 0.00 | 0.00 | 63 | 1015.0 |
| 20260506230111 | 16 | 277 | 3.2 | 14.5 | 0.00 | 0.00 | 0.00 | 64 | 1014.9 |
| 20260506230012 | 15 | 267 | 4.8 | 12.9 | 0.00 | 0.00 | 0.00 | 64 | 1014.9 |
| 20260506225916 | 15 | 334 | 4.8 | 12.9 | 0.00 | 0.00 | 0.00 | 64 | 1014.9 |
| 20260506225820 | 15 | 275 | 4.8 | 12.9 | 0.00 | 0.00 | 0.00 | 64 | 1014.9 |
| 20260506225609 | 15 | 313 | 4.8 | 12.9 | 0.00 | 0.00 | 0.00 | 65 | 1014.9 |
| 20260506225511 | 15 | 273 | 6.4 | 12.9 | 0.00 | 0.00 | 0.00 | 65 | 1015.0 |
| 20260506225411 | 15 | 263 | 4.8 | 12.9 | 0.00 | 0.00 | 0.00 | 65 | 1015.0 |
| 20260506225310 | 15 | 271 | 6.4 | 12.9 | 0.00 | 0.00 | 0.00 | 66 | 1014.9 |
| 20260506225108 | 15 | 313 | 6.4 | 14.5 | 0.00 | 0.00 | 0.00 | 66 | 1015.0 |
| 20260506225011 | 15 | 290 | 9.7 | 14.5 | 0.00 | 0.00 | 0.00 | 65 | 1014.9 |
| 20260506224908 | 15 | 311 | 8.0 | 14.5 | 0.00 | 0.00 | 0.00 | 65 | 1014.9 |
| 20260506224811 | 15 | 308 | 4.8 | 14.5 | 0.00 | 0.00 | 0.00 | 66 | 1014.9 |
| 20260506224612 | 15 | 312 | 4.8 | 14.5 | 0.00 | 0.00 | 0.00 | 66 | 1014.9 |
| 20260506224508 | 15 | 351 | 6.4 | 14.5 | 0.00 | 0.00 | 0.00 | 67 | 1015.0 |
| 20260506224410 | 15 | 277 | 6.4 | 14.5 | 0.00 | 0.00 | 0.00 | 67 | 1014.9 |
| 20260506224314 | 15 | 279 | 4.8 | 14.5 | 0.00 | 0.00 | 0.00 | 67 | 1014.9 |
| 20260506224110 | 15 | 303 | 6.4 | 14.5 | 0.00 | 0.00 | 0.00 | 67 | 1014.9 |
| 20260506224009 | 15 | 295 | 6.4 | 14.5 | 0.00 | 0.00 | 0.00 | 68 | 1015.0 |
| 20260506223910 | 14 | 288 | 6.4 | 14.5 | 0.00 | 0.00 | 0.00 | 67 | 1015.0 |
| 20260506223812 | 14 | 329 | 8.0 | 14.5 | 0.00 | 0.00 | 0.00 | 68 | 1014.9 |
| 20260506223615 | 14 | 288 | 6.4 | 14.5 | 0.00 | 0.00 | 0.00 | 68 | 1014.9 |
| 20260506223511 | 14 | 340 | 4.8 | 12.9 | 0.00 | 0.00 | 0.00 | 68 | 1014.9 |
| 20260506223411 | 14 | 305 | 6.4 | 11.3 | 0.00 | 0.00 | 0.00 | 68 | 1014.9 |
| 20260506223310 | 14 | 305 | 6.4 | 12.9 | 0.00 | 0.00 | 0.00 | 69 | 1015.0 |
| 20260506223111 | 14 | 309 | 4.8 | 12.9 | 0.00 | 0.00 | 0.00 | 69 | 1014.9 |
| 20260506223009 | 14 | 313 | 4.8 | 12.9 | 0.00 | 0.00 | 0.00 | 70 | 1015.0 |
| 20260506222912 | 14 | 287 | 6.4 | 12.9 | 0.00 | 0.00 | 0.00 | 69 | 1014.8 |
| 20260506222811 | 14 | 292 | 6.4 | 12.9 | 0.00 | 0.00 | 0.00 | 70 | 1015.0 |
| 20260506222609 | 13 | 304 | 6.4 | 12.9 | 0.00 | 0.00 | 0.00 | 70 | 1015.0 |
| 20260506222510 | 13 | 323 | 6.4 | 12.9 | 0.00 | 0.00 | 0.00 | 70 | 1015.0 |
| 20260506222411 | 13 | 306 | 6.4 | 12.9 | 0.00 | 0.00 | 0.00 | 71 | 1014.9 |
| 20260506222315 | 13 | 352 | 4.8 | 11.3 | 0.00 | 0.00 | 0.00 | 71 | 1014.9 |
| 20260506222111 | 13 | 315 | 6.4 | 11.3 | 0.00 | 0.00 | 0.00 | 72 | 1014.9 |
| 20260506222009 | 13 | 271 | 6.4 | 11.3 | 0.00 | 0.00 | 0.00 | 71 | 1014.9 |
| 20260506221909 | 13 | 323 | 6.4 | 9.7 | 0.00 | 0.00 | 0.00 | 71 | 1014.9 |
| 20260506221808 | 13 | 308 | 6.4 | 9.7 | 0.00 | 0.00 | 0.00 | 72 | 1014.9 |
| 20260506221705 | 13 | 312 | 6.4 | 9.7 | 0.00 | 0.00 | 0.00 | 72 | 1015.0 |
| 20260506221606 | 13 | 334 | 4.8 | 9.7 | 0.00 | 0.00 | 0.00 | 73 | 1014.9 |
| 20260506221501 | 13 | 299 | 6.4 | 9.7 | 0.00 | 0.00 | 0.00 | 73 | 1014.9 |
| 20260506221357 | 13 | 296 | 4.8 | 9.7 | 0.00 | 0.00 | 0.00 | 74 | 1014.8 |
| 20260506221255 | 13 | 296 | 3.2 | 9.7 | 0.00 | 0.00 | 0.00 | 74 | 1014.9 |
| 20260506221154 | 13 | 304 | 3.2 | 9.7 | 0.00 | 0.00 | 0.00 | 74 | 1015.0 |
| 20260506221050 | 13 | 295 | 4.8 | 9.7 | 0.00 | 0.00 | 0.00 | 74 | 1014.9 |
| 20260506221027 | 13 | 284 | 4.8 | 9.7 | 0.00 | 0.00 | 0.00 | 74 | 1014.9 |
| 20260506220957 | 13 | 311 | 4.8 | 9.7 | 0.00 | 0.00 | 0.00 | 75 | 1014.9 |
| 20260506220933 | 12 | 317 | 4.8 | 9.7 | 0.00 | 0.00 | 0.00 | 76 | 1014.9 |
| 20260506220641 | 12 | 301 | 3.2 | 9.7 | 0.00 | 0.00 | 0.00 | 76 | 1014.8 |
| 20260506220559 | 12 | 303 | 3.2 | 9.7 | 0.00 | 0.00 | 0.00 | 77 | 1014.8 |
| 20260506220439 | 12 | 301 | 4.8 | 9.7 | 0.00 | 0.00 | 0.00 | 77 | 1014.8 |
| 20260506220337 | 12 | 302 | 4.8 | 9.7 | 0.00 | 0.00 | 0.00 | 78 | 1014.8 |
| 20260506220239 | 12 | 276 | 3.2 | 9.7 | 0.00 | 0.00 | 0.00 | 78 | 1014.9 |
| 20260506220138 | 12 | 281 | 3.2 | 9.7 | 0.00 | 0.00 | 0.00 | 78 | 1014.8 |
| 20260506220039 | 12 | 304 | 3.2 | 6.4 | 0.00 | 0.00 | 0.00 | 79 | 1014.9 |
| 20260506215939 | 12 | 295 | 3.2 | 9.7 | 0.00 | 0.00 | 0.00 | 79 | 1014.8 |
| 20260506215844 | 12 | 304 | 3.2 | 9.7 | 0.00 | 0.00 | 0.00 | 79 | 1014.8 |
| 20260506215739 | 12 | 288 | 3.2 | 9.7 | 0.00 | 0.00 | 0.00 | 80 | 1014.8 |
| 20260506215640 | 11 | 314 | 3.2 | 9.7 | 0.00 | 0.00 | 0.00 | 80 | 1014.8 |
| 20260506215539 | 11 | 315 | 3.2 | 9.7 | 0.00 | 0.00 | 0.00 | 80 | 1014.8 |
| 20260506215440 | 11 | 291 | 3.2 | 9.7 | 0.00 | 0.00 | 0.00 | 80 | 1014.9 |
| 20260506215337 | 11 | 276 | 3.2 | 9.7 | 0.00 | 0.00 | 0.00 | 80 | 1014.7 |
| 20260506215238 | 11 | 290 | 4.8 | 9.7 | 0.00 | 0.00 | 0.00 | 80 | 1014.7 |
| 20260506215137 | 11 | 306 | 4.8 | 9.7 | 0.00 | 0.00 | 0.00 | 81 | 1014.7 |
| 20260506215055 | 11 | 294 | 4.8 | 9.7 | 0.00 | 0.00 | 0.00 | 81 | 1014.8 |
| 20260506215030 | 11 | 323 | 3.2 | 9.7 | 0.00 | 0.00 | 0.00 | 81 | 1014.8 |
| 20260506214957 | 11 | 314 | 3.2 | 11.3 | 0.00 | 0.00 | 0.00 | 81 | 1014.8 |
| 20260506214930 | 11 | 290 | 3.2 | 11.3 | 0.00 | 0.00 | 0.00 | 81 | 1014.8 |
| 20260506214639 | 11 | 301 | 4.8 | 11.3 | 0.00 | 0.00 | 0.00 | 81 | 1014.7 |
| 20260506214543 | 11 | 332 | 4.8 | 11.3 | 0.00 | 0.00 | 0.00 | 82 | 1014.7 |
| 20260506214438 | 11 | 276 | 3.2 | 11.3 | 0.00 | 0.00 | 0.00 | 82 | 1014.7 |
| 20260506214337 | 11 | 299 | 3.2 | 11.3 | 0.00 | 0.00 | 0.00 | 82 | 1014.8 |
| 20260506214236 | 11 | 285 | 3.2 | 11.3 | 0.00 | 0.00 | 0.00 | 82 | 1014.7 |
| 20260506214140 | 11 | 290 | 6.4 | 11.3 | 0.00 | 0.00 | 0.00 | 82 | 1014.8 |
| 20260506214025 | 11 | 280 | 6.4 | 11.3 | 0.00 | 0.00 | 0.00 | 82 | 1014.7 |
| 20260506213919 | 11 | 289 | 6.4 | 9.7 | 0.00 | 0.00 | 0.00 | 83 | 1014.7 |
| 20260506213817 | 11 | 317 | 6.4 | 9.7 | 0.00 | 0.00 | 0.00 | 83 | 1014.8 |
| 20260506213613 | 10 | 286 | 3.2 | 9.7 | 0.00 | 0.00 | 0.00 | 83 | 1014.7 |
| 20260506213535 | 10 | 309 | 4.8 | 9.7 | 0.00 | 0.00 | 0.00 | 83 | 1014.6 |
| 20260506213516 | 10 | 282 | 4.8 | 9.7 | 0.00 | 0.00 | 0.00 | 83 | 1014.7 |
| 20260506213448 | 10 | 294 | 4.8 | 9.7 | 0.00 | 0.00 | 0.00 | 83 | 1014.8 |
| 20260506213423 | 10 | 306 | 3.2 | 9.7 | 0.00 | 0.00 | 0.00 | 84 | 1014.7 |
| 20260506213112 | 10 | 299 | 3.2 | 9.7 | 0.00 | 0.00 | 0.00 | 84 | 1014.7 |
| 20260506213015 | 10 | 295 | 3.2 | 9.7 | 0.00 | 0.00 | 0.00 | 84 | 1014.7 |
| 20260506212910 | 10 | 282 | 3.2 | 9.7 | 0.00 | 0.00 | 0.00 | 84 | 1014.6 |
| 20260506212818 | 10 | 287 | 3.2 | 9.7 | 0.00 | 0.00 | 0.00 | 84 | 1014.6 |
| 20260506212612 | 10 | 310 | 3.2 | 8.0 | 0.00 | 0.00 | 0.00 | 84 | 1014.5 |
| 20260506212507 | 10 | 279 | 4.8 | 8.0 | 0.00 | 0.00 | 0.00 | 84 | 1014.6 |
| 20260506212405 | 10 | 286 | 4.8 | 8.0 | 0.00 | 0.00 | 0.00 | 85 | 1014.5 |
| 20260506212306 | 10 | 290 | 4.8 | 8.0 | 0.00 | 0.00 | 0.00 | 85 | 1014.5 |
| 20260506212205 | 10 | 307 | 4.8 | 8.0 | 0.00 | 0.00 | 0.00 | 85 | 1014.5 |
| 20260506212101 | 10 | 327 | 4.8 | 8.0 | 0.00 | 0.00 | 0.00 | 85 | 1014.6 |
| 20260506211958 | 10 | 296 | 4.8 | 8.0 | 0.00 | 0.00 | 0.00 | 85 | 1014.5 |
| 20260506211900 | 10 | 315 | 4.8 | 8.0 | 0.00 | 0.00 | 0.00 | 85 | 1014.6 |
| 20260506211757 | 10 | 302 | 3.2 | 8.0 | 0.00 | 0.00 | 0.00 | 85 | 1014.5 |
| 20260506211656 | 10 | 296 | 3.2 | 8.0 | 0.00 | 0.00 | 0.00 | 85 | 1014.5 |
| 20260506211554 | 10 | 333 | 3.2 | 8.0 | 0.00 | 0.00 | 0.00 | 85 | 1014.4 |
| 20260506211455 | 10 | 315 | 4.8 | 8.0 | 0.00 | 0.00 | 0.00 | 86 | 1014.5 |
| 20260506211357 | 10 | 320 | 4.8 | 8.0 | 0.00 | 0.00 | 0.00 | 86 | 1014.5 |
| 20260506211253 | 10 | 300 | 3.2 | 8.0 | 0.00 | 0.00 | 0.00 | 86 | 1014.6 |
| 20260506211150 | 10 | 289 | 1.6 | 6.4 | 0.00 | 0.00 | 0.00 | 86 | 1014.4 |
| 20260506211048 | 10 | 286 | 1.6 | 6.4 | 0.00 | 0.00 | 0.00 | 86 | 1014.5 |
| 20260506210946 | 10 | 284 | 3.2 | 6.4 | 0.00 | 0.00 | 0.00 | 86 | 1014.4 |
| 20260506210852 | 10 | 279 | 3.2 | 6.4 | 0.00 | 0.00 | 0.00 | 86 | 1014.5 |
| 20260506210743 | 10 | 279 | 3.2 | 6.4 | 0.00 | 0.00 | 0.00 | 86 | 1014.4 |
| 20260506210645 | 10 | 281 | 3.2 | 6.4 | 0.00 | 0.00 | 0.00 | 86 | 1014.6 |
| 20260506210538 | 10 | 288 | 3.2 | 6.4 | 0.00 | 0.00 | 0.00 | 86 | 1014.6 |
| 20260506210437 | 10 | 278 | 3.2 | 6.4 | 0.00 | 0.00 | 0.00 | 86 | 1014.6 |
| 20260506210342 | 10 | 290 | 3.2 | 6.4 | 0.00 | 0.00 | 0.00 | 86 | 1014.6 |
| 20260506210238 | 10 | 294 | 3.2 | 6.4 | 0.00 | 0.00 | 0.00 | 86 | 1014.5 |
| 20260506210138 | 10 | 300 | 3.2 | 6.4 | 0.00 | 0.00 | 0.00 | 86 | 1014.5 |
| 20260506210040 | 10 | 290 | 3.2 | 6.4 | 0.00 | 0.00 | 0.00 | 86 | 1014.4 |
| 20260506205939 | 10 | 304 | 3.2 | 6.4 | 0.00 | 0.00 | 0.00 | 86 | 1014.5 |
| 20260506205844 | 10 | 288 | 4.8 | 6.4 | 0.00 | 0.00 | 0.00 | 86 | 1014.5 |
| 20260506205739 | 10 | 298 | 4.8 | 6.4 | 0.00 | 0.00 | 0.00 | 86 | 1014.5 |
| 20260506205638 | 10 | 290 | 4.8 | 6.4 | 0.00 | 0.00 | 0.00 | 86 | 1014.4 |
| 20260506205539 | 10 | 289 | 3.2 | 6.4 | 0.00 | 0.00 | 0.00 | 87 | 1014.5 |
| 20260506205439 | 10 | 288 | 3.2 | 6.4 | 0.00 | 0.00 | 0.00 | 87 | 1014.5 |
| 20260506205341 | 10 | 277 | 3.2 | 6.4 | 0.00 | 0.00 | 0.00 | 87 | 1014.5 |
| 20260506205237 | 10 | 273 | 3.2 | 6.4 | 0.00 | 0.00 | 0.00 | 87 | 1014.4 |
| 20260506205137 | 10 | 274 | 3.2 | 6.4 | 0.00 | 0.00 | 0.00 | 87 | 1014.4 |
| 20260506205051 | 10 | 277 | 3.2 | 6.4 | 0.00 | 0.00 | 0.00 | 87 | 1014.5 |
| 20260506205028 | 10 | 296 | 3.2 | 6.4 | 0.00 | 0.00 | 0.00 | 87 | 1014.4 |
| 20260506205009 | 10 | 299 | 4.8 | 6.4 | 0.00 | 0.00 | 0.00 | 87 | 1014.4 |
| 20260506204930 | 10 | 294 | 3.2 | 6.4 | 0.00 | 0.00 | 0.00 | 87 | 1014.5 |
| 20260506204637 | 10 | 284 | 3.2 | 6.4 | 0.00 | 0.00 | 0.00 | 87 | 1014.4 |
| 20260506204538 | 10 | 293 | 1.6 | 4.8 | 0.00 | 0.00 | 0.00 | 87 | 1014.3 |
| 20260506204436 | 10 | 290 | 3.2 | 4.8 | 0.00 | 0.00 | 0.00 | 87 | 1014.4 |
| 20260506204341 | 10 | 290 | 3.2 | 4.8 | 0.00 | 0.00 | 0.00 | 87 | 1014.4 |
| 20260506204237 | 10 | 290 | 3.2 | 4.8 | 0.00 | 0.00 | 0.00 | 87 | 1014.4 |
| 20260506204136 | 10 | 303 | 3.2 | 4.8 | 0.00 | 0.00 | 0.00 | 87 | 1014.4 |
| 20260506204028 | 10 | 300 | 3.2 | 4.8 | 0.00 | 0.00 | 0.00 | 88 | 1014.4 |
| 20260506203929 | 10 | 297 | 3.2 | 4.8 | 0.00 | 0.00 | 0.00 | 88 | 1014.3 |
| 20260506203835 | 10 | 281 | 3.2 | 6.4 | 0.00 | 0.00 | 0.00 | 88 | 1014.3 |
| 20260506203722 | 10 | 290 | 1.6 | 8.0 | 0.00 | 0.00 | 0.00 | 88 | 1014.3 |
| 20260506203619 | 10 | 302 | 0.0 | 8.0 | 0.00 | 0.00 | 0.00 | 88 | 1014.3 |
| 20260506203520 | 10 | 297 | 0.0 | 8.0 | 0.00 | 0.00 | 0.00 | 88 | 1014.3 |
| 20260506203417 | 10 | 273 | 0.0 | 8.0 | 0.00 | 0.00 | 0.00 | 88 | 1014.4 |
| 20260506203314 | 10 | 273 | 0.0 | 8.0 | 0.00 | 0.00 | 0.00 | 88 | 1014.3 |
| 20260506203115 | 10 | 273 | 3.2 | 8.0 | 0.00 | 0.00 | 0.00 | 88 | 1014.3 |
| 20260506203010 | 10 | 284 | 4.8 | 8.0 | 0.00 | 0.00 | 0.00 | 88 | 1014.3 |
| 20260506202910 | 10 | 309 | 4.8 | 8.0 | 0.00 | 0.00 | 0.00 | 88 | 1014.4 |
| 20260506202811 | 10 | 308 | 4.8 | 8.0 | 0.00 | 0.00 | 0.00 | 88 | 1014.4 |
| 20260506202613 | 10 | 304 | 3.2 | 6.4 | 0.00 | 0.00 | 0.00 | 89 | 1014.4 |
| 20260506202509 | 10 | 271 | 1.6 | 6.4 | 0.00 | 0.00 | 0.00 | 88 | 1014.3 |
| 20260506202407 | 10 | 286 | 1.6 | 6.4 | 0.00 | 0.00 | 0.00 | 89 | 1014.3 |
| 20260506202306 | 10 | 296 | 1.6 | 6.4 | 0.00 | 0.00 | 0.00 | 89 | 1014.3 |
| 20260506202203 | 10 | 304 | 1.6 | 6.4 | 0.00 | 0.00 | 0.00 | 89 | 1014.3 |
| 20260506202105 | 10 | 305 | 3.2 | 6.4 | 0.00 | 0.00 | 0.00 | 89 | 1014.2 |
| 20260506202035 | 10 | 297 | 3.2 | 6.4 | 0.00 | 0.00 | 0.00 | 89 | 1014.3 |
| 20260506202013 | 10 | 308 | 3.2 | 6.4 | 0.00 | 0.00 | 0.00 | 89 | 1014.3 |
| 20260506201940 | 10 | 313 | 3.2 | 6.4 | 0.00 | 0.00 | 0.00 | 89 | 1014.3 |
| 20260506201701 | 10 | 301 | 3.2 | 6.4 | 0.00 | 0.00 | 0.00 | 89 | 1014.3 |
| 20260506201558 | 10 | 298 | 4.8 | 6.4 | 0.00 | 0.00 | 0.00 | 89 | 1014.3 |
| 20260506201456 | 10 | 296 | 3.2 | 6.4 | 0.00 | 0.00 | 0.00 | 89 | 1014.3 |
| 20260506201356 | 10 | 297 | 3.2 | 6.4 | 0.00 | 0.00 | 0.00 | 89 | 1014.3 |
| 20260506201250 | 10 | 313 | 3.2 | 9.7 | 0.00 | 0.00 | 0.00 | 89 | 1014.4 |
| 20260506201152 | 10 | 292 | 3.2 | 9.7 | 0.00 | 0.00 | 0.00 | 89 | 1014.4 |
| 20260506201047 | 10 | 279 | 1.6 | 9.7 | 0.00 | 0.00 | 0.00 | 89 | 1014.3 |
| 20260506200945 | 10 | 287 | 0.0 | 9.7 | 0.00 | 0.00 | 0.00 | 89 | 1014.3 |
| 20260506200841 | 10 | 287 | 1.6 | 9.7 | 0.00 | 0.00 | 0.00 | 89 | 1014.3 |
| 20260506200743 | 10 | 302 | 3.2 | 9.7 | 0.00 | 0.00 | 0.00 | 89 | 1014.4 |
| 20260506200640 | 10 | 278 | 1.6 | 9.7 | 0.00 | 0.00 | 0.00 | 89 | 1014.3 |
| 20260506200542 | 10 | 284 | 4.8 | 9.7 | 0.00 | 0.00 | 0.00 | 89 | 1014.4 |
| 20260506200438 | 10 | 260 | 3.2 | 9.7 | 0.00 | 0.00 | 0.00 | 89 | 1014.4 |
| 20260506200339 | 10 | 271 | 0.0 | 6.4 | 0.00 | 0.00 | 0.00 | 89 | 1014.3 |
| 20260506200239 | 10 | 281 | 0.0 | 6.4 | 0.00 | 0.00 | 0.00 | 89 | 1014.3 |
| 20260506200137 | 10 | 281 | 0.0 | 6.4 | 0.00 | 0.00 | 0.00 | 90 | 1014.4 |
| 20260506200039 | 10 | 281 | 0.0 | 6.4 | 0.00 | 0.00 | 0.00 | 89 | 1014.4 |
| 20260506195939 | 10 | 281 | 1.6 | 6.4 | 0.00 | 0.00 | 0.00 | 89 | 1014.4 |
| 20260506195838 | 10 | 281 | 1.6 | 6.4 | 0.00 | 0.00 | 0.00 | 90 | 1014.4 |
| 20260506195738 | 10 | 281 | 3.2 | 6.4 | 0.00 | 0.00 | 0.00 | 90 | 1014.3 |
| 20260506195637 | 10 | 280 | 3.2 | 6.4 | 0.00 | 0.00 | 0.00 | 89 | 1014.4 |
| 20260506195539 | 10 | 296 | 3.2 | 6.4 | 0.00 | 0.00 | 0.00 | 89 | 1014.4 |
| 20260506195437 | 10 | 296 | 3.2 | 4.8 | 0.00 | 0.00 | 0.00 | 89 | 1014.4 |
| 20260506195339 | 10 | 281 | 3.2 | 4.8 | 0.00 | 0.00 | 0.00 | 89 | 1014.5 |
| 20260506195237 | 10 | 274 | 3.2 | 4.8 | 0.00 | 0.00 | 0.00 | 89 | 1014.6 |
| 20260506195137 | 10 | 271 | 3.2 | 4.8 | 0.00 | 0.00 | 0.00 | 89 | 1014.5 |
| 20260506195037 | 10 | 279 | 3.2 | 4.8 | 0.00 | 0.00 | 0.00 | 89 | 1014.6 |
| 20260506194942 | 10 | 272 | 3.2 | 4.8 | 0.00 | 0.00 | 0.00 | 89 | 1014.6 |
| 20260506194830 | 10 | 279 | 3.2 | 4.8 | 0.00 | 0.00 | 0.00 | 89 | 1014.6 |
| 20260506194728 | 10 | 271 | 3.2 | 4.8 | 0.00 | 0.00 | 0.00 | 89 | 1014.6 |
| 20260506194630 | 10 | 271 | 3.2 | 4.8 | 0.00 | 0.00 | 0.00 | 89 | 1014.6 |
| 20260506194527 | 10 | 271 | 3.2 | 4.8 | 0.00 | 0.00 | 0.00 | 89 | 1014.7 |
| 20260506194427 | 10 | 274 | 1.6 | 4.8 | 0.00 | 0.00 | 0.00 | 89 | 1014.6 |
| 20260506194326 | 10 | 271 | 1.6 | 4.8 | 0.00 | 0.00 | 0.00 | 90 | 1014.7 |
| 20260506194227 | 10 | 265 | 1.6 | 4.8 | 0.00 | 0.00 | 0.00 | 90 | 1014.7 |
| 20260506194125 | 10 | 266 | 3.2 | 4.8 | 0.00 | 0.00 | 0.00 | 90 | 1014.7 |
| 20260506194024 | 10 | 271 | 3.2 | 4.8 | 0.00 | 0.00 | 0.00 | 90 | 1014.6 |
| 20260506193921 | 10 | 265 | 3.2 | 4.8 | 0.00 | 0.00 | 0.00 | 90 | 1014.6 |
| 20260506193818 | 10 | 264 | 3.2 | 4.8 | 0.00 | 0.00 | 0.00 | 90 | 1014.6 |
| 20260506193716 | 10 | 273 | 3.2 | 4.8 | 0.00 | 0.00 | 0.00 | 90 | 1014.6 |
| 20260506193613 | 10 | 262 | 3.2 | 4.8 | 0.00 | 0.00 | 0.00 | 90 | 1014.6 |
| 20260506193512 | 10 | 262 | 3.2 | 4.8 | 0.00 | 0.00 | 0.00 | 90 | 1014.6 |
| 20260506193410 | 10 | 234 | 3.2 | 4.8 | 0.00 | 0.00 | 0.00 | 90 | 1014.5 |
| 20260506193312 | 10 | 245 | 3.2 | 4.8 | 0.00 | 0.00 | 0.00 | 90 | 1014.5 |
| 20260506193214 | 10 | 264 | 3.2 | 4.8 | 0.00 | 0.00 | 0.00 | 90 | 1014.5 |
| 20260506193110 | 10 | 260 | 3.2 | 4.8 | 0.00 | 0.00 | 0.00 | 90 | 1014.5 |
| 20260506193011 | 10 | 263 | 1.6 | 4.8 | 0.00 | 0.00 | 0.00 | 90 | 1014.5 |
| 20260506192911 | 10 | 261 | 1.6 | 4.8 | 0.00 | 0.00 | 0.00 | 90 | 1014.5 |
| 20260506192811 | 10 | 261 | 1.6 | 4.8 | 0.00 | 0.00 | 0.00 | 89 | 1014.6 |
| 20260506192712 | 10 | 259 | 1.6 | 4.8 | 0.00 | 0.00 | 0.00 | 89 | 1014.5 |
| 20260506192610 | 10 | 246 | 1.6 | 4.8 | 0.00 | 0.00 | 0.00 | 89 | 1014.5 |
| 20260506192511 | 10 | 246 | 3.2 | 4.8 | 0.00 | 0.00 | 0.00 | 89 | 1014.5 |
| 20260506192411 | 10 | 242 | 3.2 | 4.8 | 0.00 | 0.00 | 0.00 | 89 | 1014.4 |
| 20260506192312 | 10 | 245 | 3.2 | 4.8 | 0.00 | 0.00 | 0.00 | 89 | 1014.4 |
| 20260506192212 | 10 | 239 | 3.2 | 4.8 | 0.00 | 0.00 | 0.00 | 89 | 1014.4 |
| 20260506192110 | 10 | 248 | 1.6 | 4.8 | 0.00 | 0.00 | 0.00 | 89 | 1014.3 |
| 20260506192009 | 10 | 254 | 1.6 | 4.8 | 0.00 | 0.00 | 0.00 | 89 | 1014.3 |
| 20260506191910 | 10 | 251 | 1.6 | 4.8 | 0.00 | 0.00 | 0.00 | 89 | 1014.3 |
| 20260506191813 | 10 | 251 | 1.6 | 4.8 | 0.00 | 0.00 | 0.00 | 89 | 1014.3 |
| 20260506191711 | 10 | 251 | 1.6 | 4.8 | 0.00 | 0.00 | 0.00 | 89 | 1014.3 |
| 20260506191609 | 10 | 251 | 1.6 | 4.8 | 0.00 | 0.00 | 0.00 | 89 | 1014.3 |
| 20260506191512 | 10 | 267 | 3.2 | 4.8 | 0.00 | 0.00 | 0.00 | 90 | 1014.3 |
| 20260506191410 | 10 | 267 | 3.2 | 4.8 | 0.00 | 0.00 | 0.00 | 89 | 1014.3 |
| 20260506191325 | 10 | 269 | 3.2 | 4.8 | 0.00 | 0.00 | 0.00 | 89 | 1014.4 |
| 20260506191210 | 10 | 265 | 3.2 | 4.8 | 0.00 | 0.00 | 0.00 | 89 | 1014.4 |
| 20260506191110 | 10 | 264 | 0.0 | 4.8 | 0.00 | 0.00 | 0.00 | 89 | 1014.3 |
| 20260506190909 | 10 | 281 | 0.0 | 0.0 | 0.00 | 0.00 | 0.00 | 90 | 1014.3 |
| 20260506190812 | 10 | 281 | 0.0 | 0.0 | 0.00 | 0.00 | 0.00 | 90 | 1014.2 |
| 20260506190710 | 10 | 281 | 0.0 | 0.0 | 0.00 | 0.00 | 0.00 | 89 | 1014.2 |
| 20260506190610 | 10 | 281 | 0.0 | 0.0 | 0.00 | 0.00 | 0.00 | 89 | 1014.2 |
| 20260506190511 | 10 | 281 | 0.0 | 0.0 | 0.00 | 0.00 | 0.00 | 89 | 1014.1 |
| 20260506190408 | 10 | 281 | 0.0 | 0.0 | 0.00 | 0.00 | 0.00 | 89 | 1014.1 |
| 20260506190311 | 10 | 281 | 0.0 | 0.0 | 0.00 | 0.00 | 0.00 | 89 | 1014.0 |
| 20260506190211 | 10 | 281 | 0.0 | 0.0 | 0.00 | 0.00 | 0.00 | 89 | 1014.1 |
| 20260506190113 | 10 | 281 | 0.0 | 0.0 | 0.00 | 0.00 | 0.00 | 89 | 1014.0 |
| 20260506190009 | 10 | 281 | 0.0 | 0.0 | 0.00 | 0.00 | 0.00 | 89 | 1014.0 |
| 20260506185909 | 10 | 281 | 0.0 | 0.0 | 0.00 | 0.00 | 0.00 | 89 | 1014.0 |
| 20260506185815 | 10 | 281 | 0.0 | 0.0 | 0.00 | 0.00 | 0.00 | 89 | 1014.0 |
| 20260506185711 | 10 | 281 | 0.0 | 0.0 | 0.00 | 0.00 | 0.00 | 89 | 1013.9 |
| 20260506185611 | 10 | 281 | 0.0 | 0.0 | 0.00 | 0.00 | 0.00 | 90 | 1013.8 |
| 20260506185512 | 10 | 281 | 0.0 | 0.0 | 0.00 | 0.00 | 0.00 | 90 | 1013.9 |
| 20260506185412 | 10 | 281 | 0.0 | 0.0 | 0.00 | 0.00 | 0.00 | 90 | 1013.9 |
| 20260506185313 | 10 | 281 | 0.0 | 0.0 | 0.00 | 0.00 | 0.00 | 90 | 1013.7 |
| 20260506185208 | 10 | 281 | 0.0 | 0.0 | 0.00 | 0.00 | 0.00 | 90 | 1013.9 |
| 20260506185109 | 10 | 281 | 0.0 | 0.0 | 0.00 | 0.00 | 0.00 | 90 | 1013.8 |
| 20260506185014 | 11 | 281 | 0.0 | 0.0 | 0.00 | 0.00 | 0.00 | 90 | 1013.8 |
| 20260506184911 | 11 | 281 | 0.0 | 0.0 | 0.00 | 0.00 | 0.00 | 90 | 1013.7 |
| 20260506184810 | 11 | 281 | 0.0 | 0.0 | 0.00 | 0.00 | 0.00 | 90 | 1013.7 |
| 20260506184711 | 11 | 281 | 0.0 | 0.0 | 0.00 | 0.00 | 0.00 | 90 | 1013.6 |
| 20260506184611 | 11 | 281 | 0.0 | 0.0 | 0.00 | 0.00 | 0.00 | 90 | 1013.7 |
| 20260506184514 | 11 | 281 | 0.0 | 0.0 | 0.00 | 0.00 | 0.00 | 90 | 1013.6 |
| 20260506184413 | 11 | 281 | 0.0 | 0.0 | 0.00 | 0.00 | 0.00 | 90 | 1013.6 |
| 20260506184310 | 11 | 281 | 0.0 | 0.0 | 0.00 | 0.00 | 0.00 | 90 | 1013.5 |
| 20260506184210 | 11 | 281 | 0.0 | 0.0 | 0.00 | 0.00 | 0.00 | 90 | 1013.6 |
| 20260506184109 | 11 | 281 | 0.0 | 0.0 | 0.00 | 0.00 | 0.00 | 90 | 1013.5 |
| 20260506184010 | 11 | 281 | 0.0 | 1.6 | 0.00 | 0.00 | 0.00 | 90 | 1013.6 |
| 20260506183908 | 11 | 281 | 0.0 | 1.6 | 0.00 | 0.00 | 0.00 | 90 | 1013.6 |
| 20260506183811 | 11 | 281 | 0.0 | 1.6 | 0.00 | 0.00 | 0.00 | 90 | 1013.5 |
| 20260506183716 | 11 | 281 | 0.0 | 1.6 | 0.00 | 0.00 | 0.00 | 90 | 1013.6 |
| 20260506183610 | 11 | 281 | 0.0 | 1.6 | 0.00 | 0.00 | 0.00 | 90 | 1013.6 |
| 20260506183511 | 11 | 281 | 0.0 | 1.6 | 0.00 | 0.00 | 0.00 | 90 | 1013.7 |
| 20260506183411 | 11 | 281 | 0.0 | 1.6 | 0.00 | 0.00 | 0.00 | 90 | 1013.6 |
| 20260506183310 | 11 | 281 | 0.0 | 1.6 | 0.00 | 0.00 | 0.00 | 90 | 1013.6 |
| 20260506183211 | 11 | 281 | 0.0 | 1.6 | 0.00 | 0.00 | 0.00 | 90 | 1013.6 |
| 20260506183109 | 11 | 281 | 0.0 | 3.2 | 0.00 | 0.00 | 0.00 | 90 | 1013.6 |
| 20260506183011 | 11 | 281 | 0.0 | 3.2 | 0.00 | 0.00 | 0.00 | 90 | 1013.6 |
| 20260506182915 | 11 | 281 | 0.0 | 3.2 | 0.00 | 0.00 | 0.00 | 90 | 1013.5 |
| 20260506182811 | 11 | 281 | 0.0 | 3.2 | 0.00 | 0.00 | 0.00 | 90 | 1013.6 |
| 20260506182711 | 11 | 281 | 0.0 | 3.2 | 0.00 | 0.00 | 0.00 | 90 | 1013.6 |
| 20260506182608 | 11 | 281 | 1.6 | 3.2 | 0.00 | 0.00 | 0.00 | 90 | 1013.6 |
| 20260506182547 | 11 | 281 | 0.0 | 4.8 | 0.00 | 0.00 | 0.00 | 90 | 1013.6 |
| 20260506182454 | 11 | 282 | 0.0 | 4.8 | 0.00 | 0.00 | 0.00 | 90 | 1013.6 |
| 20260506182432 | 11 | 281 | 1.6 | 4.8 | 0.00 | 0.00 | 0.00 | 90 | 1013.6 |
| 20260506182409 | 11 | 281 | 1.6 | 4.8 | 0.00 | 0.00 | 0.00 | 90 | 1013.8 |
| 20260506182111 | 11 | 281 | 1.6 | 4.8 | 0.00 | 0.00 | 0.00 | 90 | 1013.6 |
| 20260506182021 | 11 | 281 | 1.6 | 4.8 | 0.00 | 0.00 | 0.00 | 90 | 1013.6 |
| 20260506181956 | 11 | 281 | 1.6 | 4.8 | 0.00 | 0.00 | 0.00 | 90 | 1013.6 |
| 20260506181935 | 11 | 281 | 1.6 | 4.8 | 0.00 | 0.00 | 0.00 | 90 | 1013.6 |
| 20260506181911 | 11 | 281 | 1.6 | 4.8 | 0.00 | 0.00 | 0.00 | 90 | 1013.6 |
| 20260506181609 | 11 | 281 | 1.6 | 4.8 | 0.00 | 0.00 | 0.00 | 90 | 1013.6 |
| 20260506181513 | 11 | 283 | 1.6 | 4.8 | 0.00 | 0.00 | 0.00 | 90 | 1013.6 |
| 20260506181408 | 11 | 283 | 1.6 | 4.8 | 0.00 | 0.00 | 0.00 | 90 | 1013.6 |
| 20260506181311 | 11 | 283 | 3.2 | 4.8 | 0.00 | 0.00 | 0.00 | 90 | 1013.6 |
| 20260506181209 | 11 | 275 | 1.6 | 4.8 | 0.00 | 0.00 | 0.00 | 90 | 1013.6 |
| 20260506181108 | 11 | 279 | 1.6 | 4.8 | 0.00 | 0.00 | 0.00 | 90 | 1013.7 |
| 20260506181014 | 11 | 275 | 1.6 | 4.8 | 0.00 | 0.00 | 0.00 | 90 | 1013.6 |
| 20260506180950 | 11 | 278 | 3.2 | 4.8 | 0.00 | 0.00 | 0.00 | 90 | 1013.7 |
| 20260506180930 | 11 | 273 | 3.2 | 6.4 | 0.00 | 0.00 | 0.00 | 90 | 1013.8 |
| 20260506180906 | 11 | 275 | 3.2 | 6.4 | 0.00 | 0.00 | 0.00 | 90 | 1013.6 |
| 20260506180610 | 11 | 271 | 1.6 | 6.4 | 0.00 | 0.00 | 0.00 | 90 | 1013.7 |
| 20260506180515 | 11 | 267 | 3.2 | 6.4 | 0.00 | 0.00 | 0.00 | 90 | 1013.7 |
| 20260506180409 | 11 | 267 | 3.2 | 6.4 | 0.00 | 0.00 | 0.00 | 90 | 1013.7 |
| 20260506180312 | 11 | 267 | 3.2 | 6.4 | 0.00 | 0.00 | 0.00 | 90 | 1013.6 |
| 20260506180209 | 11 | 273 | 1.6 | 6.4 | 0.00 | 0.00 | 0.00 | 90 | 1013.7 |
| 20260506180109 | 11 | 271 | 3.2 | 6.4 | 0.00 | 0.00 | 0.00 | 90 | 1013.7 |
| 20260506180010 | 11 | 272 | 3.2 | 6.4 | 0.00 | 0.00 | 0.00 | 90 | 1013.7 |
| 20260506175909 | 11 | 280 | 3.2 | 6.4 | 0.00 | 0.00 | 0.00 | 90 | 1013.7 |
| 20260506175810 | 11 | 273 | 3.2 | 6.4 | 0.00 | 0.00 | 0.00 | 90 | 1013.6 |
| 20260506175709 | 11 | 273 | 3.2 | 6.4 | 0.00 | 0.00 | 0.00 | 90 | 1013.7 |
| 20260506175610 | 11 | 265 | 3.2 | 6.4 | 0.00 | 0.00 | 0.00 | 90 | 1013.7 |
| 20260506175538 | 11 | 271 | 3.2 | 6.4 | 0.00 | 0.00 | 0.00 | 90 | 1013.6 |
| 20260506175409 | 11 | 281 | 3.2 | 6.4 | 0.00 | 0.00 | 0.00 | 90 | 1013.7 |
| 20260506175309 | 11 | 271 | 3.2 | 6.4 | 0.00 | 0.00 | 0.00 | 90 | 1013.6 |
| 20260506175208 | 11 | 274 | 3.2 | 6.4 | 0.00 | 0.00 | 0.00 | 90 | 1013.7 |
| 20260506175109 | 11 | 273 | 3.2 | 6.4 | 0.00 | 0.00 | 0.00 | 90 | 1013.7 |
| 20260506175009 | 11 | 270 | 3.2 | 6.4 | 0.00 | 0.00 | 0.00 | 90 | 1013.7 |
| 20260506174909 | 11 | 273 | 3.2 | 6.4 | 0.00 | 0.00 | 0.00 | 90 | 1013.8 |
| 20260506174805 | 11 | 278 | 3.2 | 6.4 | 0.00 | 0.00 | 0.00 | 90 | 1013.8 |
| 20260506174701 | 11 | 274 | 3.2 | 6.4 | 0.00 | 0.00 | 0.00 | 90 | 1013.8 |
| 20260506174602 | 11 | 263 | 3.2 | 6.4 | 0.00 | 0.00 | 0.00 | 90 | 1013.8 |
| 20260506174501 | 11 | 267 | 3.2 | 6.4 | 0.00 | 0.00 | 0.00 | 90 | 1013.7 |
| 20260506174355 | 11 | 267 | 4.8 | 6.4 | 0.00 | 0.00 | 0.00 | 90 | 1013.8 |
| 20260506174255 | 11 | 270 | 4.8 | 6.4 | 0.00 | 0.00 | 0.00 | 90 | 1013.7 |
| 20260506174154 | 11 | 279 | 3.2 | 6.4 | 0.00 | 0.00 | 0.00 | 90 | 1013.7 |
| 20260506174055 | 11 | 268 | 3.2 | 6.4 | 0.00 | 0.00 | 0.00 | 90 | 1013.8 |
| 20260506174007 | 11 | 265 | 3.2 | 6.4 | 0.00 | 0.00 | 0.00 | 90 | 1013.7 |
| 20260506173943 | 11 | 268 | 3.2 | 6.4 | 0.00 | 0.00 | 0.00 | 90 | 1013.7 |
| 20260506173918 | 11 | 272 | 3.2 | 6.4 | 0.00 | 0.00 | 0.00 | 90 | 1013.7 |
| 20260506173852 | 11 | 268 | 3.2 | 6.4 | 0.00 | 0.00 | 0.00 | 90 | 1013.8 |
| 20260506173547 | 11 | 267 | 3.2 | 6.4 | 0.00 | 0.00 | 0.00 | 90 | 1013.8 |
| 20260506173446 | 11 | 268 | 3.2 | 6.4 | 0.00 | 0.00 | 0.00 | 89 | 1013.7 |
| 20260506173342 | 11 | 273 | 3.2 | 6.4 | 0.00 | 0.00 | 0.00 | 89 | 1013.8 |
| 20260506173238 | 11 | 275 | 1.6 | 4.8 | 0.00 | 0.00 | 0.00 | 89 | 1013.8 |
| 20260506173044 | 11 | 282 | 3.2 | 4.8 | 0.00 | 0.00 | 0.00 | 89 | 1013.9 |
| 20260506172939 | 11 | 274 | 1.6 | 4.8 | 0.00 | 0.00 | 0.00 | 89 | 1013.9 |
| 20260506172837 | 11 | 275 | 1.6 | 3.2 | 0.00 | 0.00 | 0.00 | 89 | 1013.9 |
| 20260506172736 | 11 | 273 | 1.6 | 3.2 | 0.00 | 0.00 | 0.00 | 89 | 1013.9 |
| 20260506172538 | 11 | 275 | 1.6 | 3.2 | 0.00 | 0.00 | 0.00 | 90 | 1013.9 |
| 20260506172439 | 11 | 275 | 1.6 | 3.2 | 0.00 | 0.00 | 0.00 | 90 | 1014.0 |
| 20260506172337 | 11 | 275 | 1.6 | 3.2 | 0.00 | 0.00 | 0.00 | 90 | 1014.0 |
| 20260506172238 | 11 | 276 | 1.6 | 3.2 | 0.00 | 0.00 | 0.00 | 90 | 1014.1 |
| 20260506172037 | 11 | 271 | 1.6 | 3.2 | 0.00 | 0.00 | 0.00 | 90 | 1014.1 |
| 20260506171938 | 12 | 271 | 0.0 | 3.2 | 0.00 | 0.00 | 0.00 | 90 | 1014.1 |
| 20260506171836 | 12 | 270 | 0.0 | 3.2 | 0.00 | 0.00 | 0.00 | 90 | 1014.1 |
| 20260506171737 | 12 | 270 | 1.6 | 3.2 | 0.00 | 0.00 | 0.00 | 90 | 1014.1 |
| 20260506171540 | 12 | 280 | 1.6 | 3.2 | 0.00 | 0.00 | 0.00 | 89 | 1014.2 |
| 20260506171437 | 12 | 280 | 1.6 | 3.2 | 0.00 | 0.00 | 0.00 | 89 | 1014.0 |
| 20260506171336 | 12 | 280 | 1.6 | 3.2 | 0.00 | 0.00 | 0.00 | 89 | 1014.1 |
| 20260506171237 | 12 | 280 | 0.0 | 3.2 | 0.00 | 0.00 | 0.00 | 89 | 1014.0 |
| 20260506171134 | 12 | 272 | 0.0 | 3.2 | 0.00 | 0.00 | 0.00 | 89 | 1014.0 |
| 20260506171026 | 12 | 272 | 0.0 | 4.8 | 0.00 | 0.00 | 0.00 | 89 | 1014.1 |
| 20260506170927 | 12 | 272 | 1.6 | 4.8 | 0.00 | 0.00 | 0.00 | 89 | 1014.1 |
| 20260506170819 | 12 | 272 | 1.6 | 4.8 | 0.00 | 0.00 | 0.00 | 89 | 1014.1 |
| 20260506170720 | 12 | 272 | 1.6 | 4.8 | 0.00 | 0.00 | 0.00 | 89 | 1014.1 |
| 20260506170617 | 12 | 272 | 1.6 | 4.8 | 0.00 | 0.00 | 0.00 | 89 | 1014.1 |
| 20260506170517 | 12 | 273 | 1.6 | 4.8 | 0.00 | 0.00 | 0.00 | 89 | 1014.1 |
| 20260506170414 | 12 | 275 | 3.2 | 4.8 | 0.00 | 0.00 | 0.00 | 89 | 1014.1 |
| 20260506170313 | 12 | 275 | 3.2 | 4.8 | 0.00 | 0.00 | 0.00 | 89 | 1014.1 |
| 20260506170213 | 12 | 270 | 3.2 | 4.8 | 0.00 | 0.00 | 0.00 | 89 | 1014.1 |
| 20260506170110 | 12 | 272 | 3.2 | 4.8 | 0.00 | 0.00 | 0.00 | 89 | 1014.1 |
| 20260506170011 | 12 | 270 | 3.2 | 4.8 | 0.00 | 0.00 | 0.00 | 89 | 1014.2 |
| 20260506165911 | 12 | 270 | 3.2 | 4.8 | 0.00 | 0.00 | 0.00 | 89 | 1014.1 |
| 20260506165810 | 12 | 269 | 3.2 | 4.8 | 0.00 | 0.00 | 0.00 | 89 | 1014.1 |
| 20260506165710 | 12 | 271 | 3.2 | 4.8 | 0.00 | 0.00 | 0.00 | 89 | 1014.1 |
| 20260506165609 | 12 | 273 | 3.2 | 4.8 | 0.00 | 0.00 | 0.00 | 89 | 1014.1 |
| 20260506165508 | 12 | 280 | 3.2 | 6.4 | 0.00 | 0.00 | 0.00 | 89 | 1014.1 |
| 20260506165410 | 12 | 275 | 3.2 | 6.4 | 0.00 | 0.00 | 0.00 | 89 | 1014.1 |
| 20260506165309 | 12 | 273 | 3.2 | 6.4 | 0.00 | 0.00 | 0.00 | 90 | 1014.2 |
| 20260506165209 | 12 | 271 | 3.2 | 6.4 | 0.00 | 0.00 | 0.00 | 90 | 1014.2 |
| 20260506165109 | 12 | 284 | 3.2 | 6.4 | 0.00 | 0.00 | 0.00 | 90 | 1014.1 |
| 20260506165011 | 12 | 271 | 3.2 | 6.4 | 0.00 | 0.00 | 0.00 | 90 | 1014.1 |
| 20260506164943 | 12 | 275 | 3.2 | 6.4 | 0.00 | 0.00 | 0.00 | 90 | 1014.2 |
| 20260506164926 | 12 | 279 | 3.2 | 6.4 | 0.00 | 0.00 | 0.00 | 90 | 1014.2 |
| 20260506164859 | 12 | 273 | 3.2 | 6.4 | 0.00 | 0.00 | 0.00 | 90 | 1014.3 |
| 20260506164612 | 12 | 272 | 3.2 | 6.4 | 0.00 | 0.00 | 0.00 | 90 | 1014.2 |
| 20260506164512 | 12 | 273 | 3.2 | 4.8 | 0.00 | 0.00 | 0.00 | 90 | 1014.2 |
| 20260506164410 | 12 | 272 | 3.2 | 4.8 | 0.00 | 0.00 | 0.00 | 89 | 1014.2 |
| 20260506164311 | 12 | 286 | 3.2 | 4.8 | 0.00 | 0.00 | 0.00 | 89 | 1014.2 |
| 20260506164208 | 12 | 279 | 3.2 | 4.8 | 0.00 | 0.00 | 0.00 | 89 | 1014.3 |
| 20260506164111 | 12 | 279 | 3.2 | 4.8 | 0.00 | 0.00 | 0.00 | 89 | 1014.4 |
| 20260506164009 | 12 | 279 | 3.2 | 6.4 | 0.00 | 0.00 | 0.00 | 89 | 1014.5 |
| 20260506163911 | 12 | 279 | 3.2 | 6.4 | 0.00 | 0.00 | 0.00 | 89 | 1014.4 |
| 20260506163812 | 12 | 271 | 3.2 | 6.4 | 0.00 | 0.00 | 0.00 | 89 | 1014.5 |
| 20260506163716 | 12 | 274 | 3.2 | 6.4 | 0.00 | 0.00 | 0.00 | 89 | 1014.5 |
| 20260506163610 | 12 | 271 | 3.2 | 6.4 | 0.00 | 0.00 | 0.00 | 89 | 1014.5 |
| 20260506163513 | 12 | 278 | 3.2 | 6.4 | 0.00 | 0.00 | 0.00 | 89 | 1014.5 |
| 20260506163410 | 12 | 274 | 3.2 | 6.4 | 0.00 | 0.00 | 0.00 | 89 | 1014.5 |
| 20260506163310 | 12 | 275 | 3.2 | 6.4 | 0.00 | 0.00 | 0.00 | 89 | 1014.6 |
| 20260506163208 | 12 | 273 | 3.2 | 6.4 | 0.00 | 0.00 | 0.00 | 89 | 1014.7 |
| 20260506163115 | 12 | 267 | 3.2 | 6.4 | 0.00 | 0.00 | 0.00 | 89 | 1014.6 |
| 20260506163010 | 12 | 269 | 3.2 | 6.4 | 0.00 | 0.00 | 0.00 | 89 | 1014.6 |
| 20260506162950 | 12 | 273 | 3.2 | 6.4 | 0.00 | 0.00 | 0.00 | 89 | 1014.6 |
| 20260506162926 | 12 | 261 | 3.2 | 6.4 | 0.00 | 0.00 | 0.00 | 89 | 1014.6 |
| 20260506162859 | 12 | 273 | 3.2 | 6.4 | 0.00 | 0.00 | 0.00 | 89 | 1014.6 |
| 20260506162610 | 12 | 272 | 3.2 | 6.4 | 0.00 | 0.00 | 0.00 | 89 | 1014.6 |
| 20260506162510 | 12 | 268 | 3.2 | 6.4 | 0.00 | 0.00 | 0.00 | 89 | 1014.7 |
| 20260506162424 | 12 | 269 | 3.2 | 6.4 | 0.00 | 0.00 | 0.00 | 89 | 1014.6 |
| 20260506162308 | 12 | 277 | 3.2 | 6.4 | 0.00 | 0.00 | 0.00 | 89 | 1014.6 |
| 20260506162212 | 12 | 273 | 3.2 | 6.4 | 0.00 | 0.00 | 0.00 | 89 | 1014.7 |
| 20260506162110 | 12 | 279 | 3.2 | 6.4 | 0.00 | 0.00 | 0.00 | 89 | 1014.7 |
| 20260506162009 | 12 | 268 | 3.2 | 4.8 | 0.00 | 0.00 | 0.00 | 89 | 1014.8 |
| 20260506161905 | 12 | 267 | 3.2 | 4.8 | 0.00 | 0.00 | 0.00 | 89 | 1014.7 |
| 20260506161805 | 12 | 263 | 3.2 | 4.8 | 0.00 | 0.00 | 0.00 | 90 | 1014.7 |
| 20260506161708 | 12 | 267 | 3.2 | 4.8 | 0.00 | 0.00 | 0.00 | 89 | 1014.7 |
| 20260506161604 | 12 | 279 | 3.2 | 4.8 | 0.00 | 0.00 | 0.00 | 89 | 1014.7 |
| 20260506161500 | 12 | 263 | 3.2 | 4.8 | 0.00 | 0.00 | 0.00 | 89 | 1014.6 |
| 20260506161359 | 12 | 263 | 3.2 | 4.8 | 0.00 | 0.00 | 0.00 | 89 | 1014.6 |
| 20260506161301 | 12 | 266 | 3.2 | 4.8 | 0.00 | 0.00 | 0.00 | 89 | 1014.6 |
| 20260506161156 | 12 | 269 | 3.2 | 4.8 | 0.00 | 0.00 | 0.00 | 89 | 1014.6 |
| 20260506161055 | 12 | 271 | 3.2 | 4.8 | 0.00 | 0.00 | 0.00 | 89 | 1014.7 |
| 20260506160955 | 12 | 276 | 1.6 | 4.8 | 0.00 | 0.00 | 0.00 | 89 | 1014.7 |
| 20260506160847 | 12 | 281 | 1.6 | 4.8 | 0.00 | 0.00 | 0.00 | 89 | 1014.7 |
| 20260506160744 | 12 | 275 | 3.2 | 4.8 | 0.00 | 0.00 | 0.00 | 89 | 1014.9 |
| 20260506160641 | 12 | 275 | 1.6 | 4.8 | 0.00 | 0.00 | 0.00 | 89 | 1014.9 |
| 20260506160538 | 12 | 269 | 1.6 | 3.2 | 0.00 | 0.00 | 0.00 | 90 | 1014.9 |
| 20260506160438 | 13 | 264 | 1.6 | 3.2 | 0.00 | 0.00 | 0.00 | 90 | 1014.9 |
| 20260506160339 | 13 | 249 | 1.6 | 3.2 | 0.00 | 0.00 | 0.00 | 90 | 1014.9 |
| 20260506160238 | 13 | 249 | 1.6 | 3.2 | 0.00 | 0.00 | 0.00 | 89 | 1014.9 |
| 20260506160043 | 13 | 259 | 1.6 | 4.8 | 0.00 | 0.00 | 0.00 | 90 | 1014.9 |
| 20260506155937 | 13 | 259 | 1.6 | 4.8 | 0.00 | 0.00 | 0.00 | 90 | 1015.0 |
| 20260506155839 | 13 | 271 | 0.0 | 4.8 | 0.00 | 0.00 | 0.00 | 90 | 1015.0 |
| 20260506155737 | 13 | 271 | 0.0 | 4.8 | 0.00 | 0.00 | 0.00 | 90 | 1015.0 |
| 20260506155538 | 13 | 271 | 1.6 | 4.8 | 0.00 | 0.00 | 0.00 | 89 | 1014.9 |
| 20260506155440 | 13 | 271 | 1.6 | 4.8 | 0.00 | 0.00 | 0.00 | 89 | 1014.9 |
| 20260506155403 | 13 | 271 | 1.6 | 4.8 | 0.00 | 0.00 | 0.00 | 89 | 1014.9 |
| 20260506155239 | 13 | 270 | 3.2 | 4.8 | 0.00 | 0.00 | 0.00 | 89 | 1014.9 |
| 20260506155138 | 13 | 275 | 3.2 | 4.8 | 0.00 | 0.00 | 0.00 | 89 | 1014.8 |
| 20260506155038 | 13 | 275 | 1.6 | 3.2 | 0.00 | 0.00 | 0.00 | 89 | 1014.9 |
| 20260506154941 | 13 | 275 | 0.0 | 3.2 | 0.00 | 0.00 | 0.00 | 89 | 1014.9 |
| 20260506154837 | 13 | 275 | 0.0 | 3.2 | 0.00 | 0.00 | 0.00 | 89 | 1015.0 |
| 20260506154738 | 13 | 275 | 0.0 | 3.2 | 0.00 | 0.00 | 0.00 | 90 | 1014.9 |
| 20260506154537 | 13 | 275 | 0.0 | 3.2 | 0.00 | 0.00 | 0.00 | 89 | 1014.9 |
| 20260506154455 | 13 | 275 | 1.6 | 3.2 | 0.00 | 0.00 | 0.00 | 89 | 1014.9 |
| 20260506154428 | 13 | 275 | 1.6 | 3.2 | 0.00 | 0.00 | 0.00 | 90 | 1014.8 |
| 20260506154410 | 13 | 275 | 1.6 | 4.8 | 0.00 | 0.00 | 0.00 | 89 | 1014.9 |
| 20260506154341 | 13 | 275 | 1.6 | 4.8 | 0.00 | 0.00 | 0.00 | 89 | 1014.9 |
| 20260506154038 | 13 | 275 | 1.6 | 4.8 | 0.00 | 0.00 | 0.00 | 89 | 1014.9 |
| 20260506153931 | 13 | 275 | 1.6 | 4.8 | 0.00 | 0.00 | 0.00 | 89 | 1014.9 |
| 20260506153825 | 13 | 275 | 1.6 | 4.8 | 0.00 | 0.00 | 0.00 | 89 | 1014.9 |
| 20260506153722 | 13 | 275 | 1.6 | 4.8 | 0.00 | 0.00 | 0.00 | 89 | 1014.9 |
| 20260506153521 | 13 | 275 | 3.2 | 4.8 | 0.00 | 0.00 | 0.00 | 89 | 1014.9 |
| 20260506153414 | 13 | 281 | 3.2 | 4.8 | 0.00 | 0.00 | 0.00 | 89 | 1015.0 |
| 20260506153314 | 13 | 289 | 1.6 | 4.8 | 0.00 | 0.00 | 0.00 | 89 | 1015.0 |
| 20260506153213 | 13 | 283 | 1.6 | 3.2 | 0.00 | 0.00 | 0.00 | 89 | 1014.9 |
| 20260506153009 | 13 | 283 | 1.6 | 3.2 | 0.00 | 0.00 | 0.00 | 89 | 1015.0 |
| 20260506152931 | 13 | 283 | 0.0 | 3.2 | 0.00 | 0.00 | 0.00 | 89 | 1015.1 |
| 20260506152908 | 13 | 283 | 0.0 | 3.2 | 0.00 | 0.00 | 0.00 | 89 | 1014.9 |
| 20260506152846 | 13 | 271 | 0.0 | 0.0 | 0.00 | 0.00 | 0.00 | 89 | 1015.1 |
| 20260506152823 | 13 | 271 | 0.0 | 0.0 | 0.00 | 0.00 | 0.00 | 89 | 1015.0 |
| 20260506152516 | 13 | 271 | 0.0 | 0.0 | 0.00 | 0.00 | 0.00 | 89 | 1015.1 |
| 20260506152408 | 13 | 271 | 0.0 | 0.0 | 0.00 | 0.00 | 0.00 | 89 | 1015.0 |
| 20260506152311 | 13 | 271 | 0.0 | 0.0 | 0.00 | 0.00 | 0.00 | 89 | 1015.1 |
| 20260506152212 | 13 | 271 | 0.0 | 0.0 | 0.00 | 0.00 | 0.00 | 89 | 1015.1 |
| 20260506152008 | 13 | 271 | 0.0 | 0.0 | 0.00 | 0.00 | 0.00 | 89 | 1015.0 |
| 20260506151934 | 13 | 271 | 0.0 | 0.0 | 0.00 | 0.00 | 0.00 | 89 | 1015.2 |
| 20260506151913 | 13 | 271 | 0.0 | 0.0 | 0.00 | 0.00 | 0.00 | 89 | 1015.2 |
| 20260506151849 | 13 | 271 | 0.0 | 0.0 | 0.00 | 0.00 | 0.00 | 89 | 1015.2 |
| 20260506151826 | 13 | 271 | 0.0 | 0.0 | 0.00 | 0.00 | 0.00 | 89 | 1015.1 |
| 20260506151457 | 13 | 271 | 0.0 | 0.0 | 0.00 | 0.00 | 0.00 | 89 | 1015.2 |
| 20260506151349 | 13 | 271 | 0.0 | 0.0 | 0.00 | 0.00 | 0.00 | 89 | 1015.2 |
| 20260506151249 | 13 | 271 | 0.0 | 0.0 | 0.00 | 0.00 | 0.00 | 89 | 1015.2 |
| 20260506151149 | 14 | 271 | 0.0 | 0.0 | 0.00 | 0.00 | 0.00 | 89 | 1015.2 |
| 20260506151048 | 14 | 271 | 0.0 | 0.0 | 0.00 | 0.00 | 0.00 | 89 | 1015.3 |
| 20260506150948 | 14 | 271 | 0.0 | 0.0 | 0.00 | 0.00 | 0.00 | 89 | 1015.3 |
| 20260506150917 | 14 | 271 | 0.0 | 0.0 | 0.00 | 0.00 | 0.00 | 89 | 1015.2 |
| 20260506150857 | 14 | 271 | 0.0 | 0.0 | 0.00 | 0.00 | 0.00 | 89 | 1015.3 |
| 20260506150832 | 14 | 271 | 0.0 | 0.0 | 0.00 | 0.00 | 0.00 | 89 | 1015.3 |
| 20260506150543 | 14 | 271 | 0.0 | 0.0 | 0.00 | 0.00 | 0.00 | 89 | 1015.3 |
| 20260506150443 | 14 | 271 | 0.0 | 0.0 | 0.00 | 0.00 | 0.00 | 89 | 1015.2 |
| 20260506150342 | 14 | 271 | 0.0 | 1.6 | 0.00 | 0.00 | 0.00 | 89 | 1015.1 |
| 20260506150244 | 14 | 271 | 0.0 | 1.6 | 0.00 | 0.00 | 0.00 | 89 | 1015.3 |
| 20260506150141 | 14 | 271 | 0.0 | 1.6 | 0.00 | 0.00 | 0.00 | 89 | 1015.1 |
| 20260506150037 | 14 | 271 | 0.0 | 1.6 | 0.00 | 0.00 | 0.00 | 89 | 1015.3 |
| 20260506145939 | 14 | 271 | 0.0 | 1.6 | 0.00 | 0.00 | 0.00 | 89 | 1015.2 |
| 20260506145838 | 14 | 271 | 0.0 | 1.6 | 0.00 | 0.00 | 0.00 | 89 | 1015.2 |
| 20260506145738 | 14 | 271 | 0.0 | 1.6 | 0.00 | 0.00 | 0.00 | 89 | 1015.2 |
| 20260506145637 | 14 | 271 | 0.0 | 3.2 | 0.00 | 0.00 | 0.00 | 89 | 1015.3 |
| 20260506145538 | 14 | 271 | 0.0 | 3.2 | 0.00 | 0.00 | 0.00 | 89 | 1015.2 |
| 20260506145440 | 14 | 271 | 1.6 | 3.2 | 0.00 | 0.00 | 0.00 | 89 | 1015.2 |
| 20260506145338 | 14 | 271 | 1.6 | 3.2 | 0.00 | 0.00 | 0.00 | 89 | 1015.2 |
| 20260506145237 | 14 | 271 | 1.6 | 3.2 | 0.00 | 0.00 | 0.00 | 89 | 1015.2 |
| 20260506145136 | 14 | 271 | 0.0 | 4.8 | 0.00 | 0.00 | 0.00 | 89 | 1015.3 |
| 20260506145030 | 14 | 271 | 0.0 | 4.8 | 0.00 | 0.00 | 0.00 | 89 | 1015.2 |
| 20260506144930 | 14 | 271 | 0.0 | 4.8 | 0.00 | 0.00 | 0.00 | 89 | 1015.3 |
| 20260506144824 | 14 | 271 | 0.0 | 4.8 | 0.00 | 0.00 | 0.00 | 89 | 1015.3 |
| 20260506144728 | 14 | 271 | 0.0 | 4.8 | 0.00 | 0.00 | 0.00 | 89 | 1015.3 |
| 20260506144626 | 14 | 271 | 0.0 | 4.8 | 0.00 | 0.00 | 0.00 | 89 | 1015.3 |
| 20260506144520 | 14 | 271 | 0.0 | 4.8 | 0.00 | 0.00 | 0.00 | 89 | 1015.4 |
| 20260506144421 | 14 | 271 | 1.6 | 4.8 | 0.00 | 0.00 | 0.00 | 89 | 1015.3 |
| 20260506144321 | 14 | 259 | 3.2 | 4.8 | 0.00 | 0.00 | 0.00 | 89 | 1015.4 |
| 20260506144225 | 14 | 235 | 1.6 | 4.8 | 0.00 | 0.00 | 0.00 | 89 | 1015.4 |
| 20260506144119 | 14 | 260 | 1.6 | 3.2 | 0.00 | 0.00 | 0.00 | 89 | 1015.4 |
| 20260506144019 | 15 | 277 | 1.6 | 3.2 | 0.00 | 0.00 | 0.00 | 89 | 1015.4 |
| 20260506143919 | 15 | 238 | 0.0 | 3.2 | 0.00 | 0.00 | 0.00 | 89 | 1015.4 |
| 20260506143819 | 15 | 238 | 0.0 | 3.2 | 0.00 | 0.00 | 0.00 | 89 | 1015.3 |
| 20260506143720 | 15 | 238 | 0.0 | 3.2 | 0.00 | 0.00 | 0.00 | 89 | 1015.3 |
| 20260506143520 | 15 | 238 | 1.6 | 3.2 | 0.00 | 0.00 | 0.00 | 89 | 1015.4 |
| 20260506143415 | 15 | 238 | 1.6 | 3.2 | 0.00 | 0.00 | 0.00 | 89 | 1015.4 |
| 20260506143312 | 15 | 238 | 1.6 | 3.2 | 0.00 | 0.00 | 0.00 | 89 | 1015.3 |
| 20260506143214 | 15 | 238 | 0.0 | 3.2 | 0.00 | 0.00 | 0.00 | 89 | 1015.3 |
| 20260506143012 | 15 | 238 | 0.0 | 3.2 | 0.00 | 0.00 | 0.00 | 89 | 1015.4 |
| 20260506142909 | 15 | 238 | 1.6 | 3.2 | 0.00 | 0.00 | 0.00 | 90 | 1015.4 |
| 20260506142810 | 15 | 238 | 1.6 | 3.2 | 0.00 | 0.00 | 0.00 | 90 | 1015.4 |
| 20260506142709 | 15 | 238 | 1.6 | 3.2 | 0.00 | 0.00 | 0.00 | 90 | 1015.4 |
| 20260506142518 | 15 | 243 | 1.6 | 3.2 | 0.00 | 0.00 | 0.00 | 90 | 1015.4 |
| 20260506142409 | 15 | 286 | 1.6 | 3.2 | 0.00 | 0.00 | 0.00 | 90 | 1015.4 |
| 20260506142310 | 15 | 313 | 0.0 | 3.2 | 0.00 | 0.00 | 0.00 | 90 | 1015.5 |
| 20260506142215 | 15 | 263 | 0.0 | 0.0 | 0.00 | 0.00 | 0.00 | 90 | 1015.4 |
| 20260506142114 | 15 | 263 | 0.0 | 0.0 | 0.00 | 0.00 | 0.00 | 90 | 1015.5 |
| 20260506142055 | 15 | 263 | 0.0 | 0.0 | 0.00 | 0.00 | 0.00 | 90 | 1015.5 |
| 20260506141810 | 15 | 263 | 0.0 | 0.0 | 0.00 | 0.00 | 0.00 | 90 | 1015.5 |
| 20260506141709 | 15 | 263 | 0.0 | 1.6 | 0.00 | 0.00 | 0.00 | 90 | 1015.5 |
| 20260506141620 | 15 | 263 | 0.0 | 1.6 | 0.00 | 0.00 | 0.00 | 90 | 1015.5 |
| 20260506141513 | 15 | 263 | 0.0 | 4.8 | 0.00 | 0.00 | 0.00 | 90 | 1015.5 |
| 20260506141410 | 15 | 263 | 0.0 | 4.8 | 0.00 | 0.00 | 0.00 | 90 | 1015.5 |
| 20260506141308 | 15 | 263 | 0.0 | 4.8 | 0.00 | 0.00 | 0.00 | 90 | 1015.5 |
| 20260506141210 | 15 | 263 | 0.0 | 4.8 | 0.00 | 0.00 | 0.00 | 90 | 1015.4 |
| 20260506141008 | 15 | 263 | 0.0 | 4.8 | 0.00 | 0.00 | 0.00 | 90 | 1015.5 |
| 20260506140910 | 15 | 263 | 0.0 | 4.8 | 0.00 | 0.00 | 0.00 | 90 | 1015.4 |
| 20260506140808 | 15 | 263 | 1.6 | 4.8 | 0.00 | 0.00 | 0.00 | 90 | 1015.4 |
| 20260506140656 | 15 | 273 | 1.6 | 4.8 | 0.00 | 0.00 | 0.00 | 90 | 1015.3 |
| 20260506140553 | 15 | 273 | 1.6 | 6.4 | 0.00 | 0.00 | 0.00 | 90 | 1015.4 |
| 20260506140447 | 15 | 268 | 0.0 | 6.4 | 0.00 | 0.00 | 0.00 | 90 | 1015.4 |
| 20260506140346 | 15 | 277 | 0.0 | 6.4 | 0.00 | 0.00 | 0.00 | 90 | 1015.4 |
| 20260506140243 | 15 | 277 | 1.6 | 6.4 | 0.00 | 0.00 | 0.00 | 90 | 1015.3 |
| 20260506140140 | 15 | 277 | 3.2 | 6.4 | 0.00 | 0.00 | 0.00 | 90 | 1015.4 |
| 20260506140043 | 15 | 281 | 3.2 | 6.4 | 0.00 | 0.00 | 0.00 | 90 | 1015.3 |
| 20260506135937 | 15 | 284 | 3.2 | 6.4 | 0.00 | 0.00 | 0.00 | 90 | 1015.3 |
| 20260506135841 | 15 | 316 | 3.2 | 6.4 | 0.00 | 0.00 | 0.00 | 90 | 1015.4 |
| 20260506135738 | 15 | 301 | 3.2 | 6.4 | 0.00 | 0.00 | 0.00 | 90 | 1015.3 |
| 20260506135639 | 15 | 300 | 3.2 | 6.4 | 0.00 | 0.00 | 0.00 | 90 | 1015.3 |
| 20260506135539 | 15 | 281 | 3.2 | 6.4 | 0.00 | 0.00 | 0.00 | 90 | 1015.2 |
| 20260506135441 | 15 | 281 | 3.2 | 6.4 | 0.00 | 0.00 | 0.00 | 90 | 1015.3 |
| 20260506135337 | 15 | 300 | 3.2 | 4.8 | 0.00 | 0.00 | 0.00 | 90 | 1015.3 |
| 20260506135251 | 15 | 292 | 3.2 | 6.4 | 0.00 | 0.00 | 0.00 | 90 | 1015.3 |
| 20260506135139 | 15 | 305 | 3.2 | 6.4 | 0.00 | 0.00 | 0.00 | 90 | 1015.4 |
| 20260506135044 | 15 | 305 | 3.2 | 6.4 | 0.00 | 0.00 | 0.00 | 90 | 1015.4 |
| 20260506134939 | 15 | 296 | 3.2 | 6.4 | 0.00 | 0.00 | 0.00 | 90 | 1015.3 |
| 20260506134838 | 15 | 315 | 1.6 | 6.4 | 0.00 | 0.00 | 0.00 | 90 | 1015.3 |
| 20260506134737 | 15 | 273 | 1.6 | 6.4 | 0.00 | 0.00 | 0.00 | 90 | 1015.3 |
| 20260506134640 | 15 | 321 | 3.2 | 6.4 | 0.00 | 0.00 | 0.00 | 90 | 1015.2 |
| 20260506134543 | 15 | 292 | 3.2 | 6.4 | 0.00 | 0.00 | 0.00 | 90 | 1015.3 |
| 20260506134438 | 15 | 278 | 3.2 | 6.4 | 0.00 | 0.00 | 0.00 | 90 | 1015.3 |
| 20260506134414 | 15 | 316 | 3.2 | 6.4 | 0.00 | 0.00 | 0.00 | 90 | 1015.3 |
| 20260506134319 | 15 | 290 | 3.2 | 6.4 | 0.00 | 0.00 | 0.00 | 90 | 1015.3 |
| 20260506134041 | 15 | 292 | 3.2 | 6.4 | 0.00 | 0.00 | 0.00 | 90 | 1015.4 |
| 20260506133938 | 15 | 288 | 3.2 | 6.4 | 0.00 | 0.00 | 0.00 | 90 | 1015.4 |
| 20260506133837 | 15 | 298 | 3.2 | 6.4 | 0.00 | 0.00 | 0.00 | 90 | 1015.3 |
| 20260506133738 | 15 | 327 | 3.2 | 6.4 | 0.00 | 0.00 | 0.00 | 90 | 1015.3 |
| 20260506133640 | 15 | 305 | 3.2 | 8.0 | 0.00 | 0.00 | 0.00 | 90 | 1015.3 |
| 20260506133537 | 15 | 338 | 1.6 | 9.7 | 0.00 | 0.00 | 0.00 | 90 | 1015.3 |
| 20260506133438 | 15 | 322 | 3.2 | 9.7 | 0.00 | 0.00 | 0.00 | 90 | 1015.3 |
| 20260506133337 | 15 | 312 | 1.6 | 9.7 | 0.00 | 0.00 | 0.00 | 90 | 1015.3 |
| 20260506133238 | 15 | 318 | 3.2 | 9.7 | 0.00 | 0.00 | 0.00 | 90 | 1015.4 |
| 20260506133140 | 15 | 322 | 3.2 | 9.7 | 0.00 | 0.00 | 0.00 | 90 | 1015.3 |
| 20260506133038 | 15 | 303 | 3.2 | 9.7 | 0.00 | 0.00 | 0.00 | 90 | 1015.4 |
| 20260506132939 | 15 | 323 | 3.2 | 9.7 | 0.00 | 0.00 | 0.00 | 90 | 1015.4 |
| 20260506132839 | 15 | 334 | 4.8 | 9.7 | 0.00 | 0.00 | 0.00 | 90 | 1015.4 |
| 20260506132738 | 15 | 329 | 6.4 | 9.7 | 0.00 | 0.00 | 0.00 | 90 | 1015.4 |
| 20260506132641 | 15 | 22 | 4.8 | 9.7 | 0.00 | 0.00 | 0.00 | 90 | 1015.4 |
| 20260506132539 | 15 | 335 | 1.6 | 8.0 | 0.00 | 0.00 | 0.00 | 90 | 1015.4 |
| 20260506132440 | 15 | 333 | 1.6 | 8.0 | 0.00 | 0.00 | 0.00 | 90 | 1015.5 |
| 20260506132342 | 15 | 333 | 3.2 | 8.0 | 0.00 | 0.00 | 0.00 | 90 | 1015.5 |
| 20260506132238 | 15 | 340 | 4.8 | 8.0 | 0.00 | 0.00 | 0.00 | 90 | 1015.5 |
| 20260506132138 | 15 | 327 | 4.8 | 8.0 | 0.00 | 0.00 | 0.00 | 90 | 1015.5 |
| 20260506132037 | 15 | 319 | 4.8 | 8.0 | 0.00 | 0.00 | 0.00 | 90 | 1015.6 |
| 20260506131938 | 15 | 316 | 3.2 | 8.0 | 0.00 | 0.00 | 0.00 | 90 | 1015.5 |
| 20260506131839 | 15 | 309 | 3.2 | 8.0 | 0.00 | 0.00 | 0.00 | 90 | 1015.5 |
| 20260506131740 | 15 | 303 | 4.8 | 8.0 | 0.00 | 0.00 | 0.00 | 90 | 1015.6 |
| 20260506131637 | 15 | 288 | 3.2 | 8.0 | 0.00 | 0.00 | 0.00 | 90 | 1015.6 |
| 20260506131536 | 15 | 296 | 3.2 | 8.0 | 0.00 | 0.00 | 0.00 | 90 | 1015.6 |
| 20260506131437 | 15 | 306 | 4.8 | 8.0 | 0.00 | 0.00 | 0.00 | 90 | 1015.6 |
| 20260506131327 | 15 | 324 | 4.8 | 8.0 | 0.00 | 0.00 | 0.00 | 90 | 1015.6 |
| 20260506131224 | 15 | 340 | 3.2 | 8.0 | 0.00 | 0.00 | 0.00 | 90 | 1015.6 |
| 20260506131124 | 15 | 301 | 3.2 | 9.7 | 0.00 | 0.00 | 0.00 | 90 | 1015.6 |
| 20260506131020 | 15 | 327 | 3.2 | 9.7 | 0.00 | 0.00 | 0.00 | 90 | 1015.6 |
| 20260506130922 | 15 | 327 | 1.6 | 9.7 | 0.00 | 0.00 | 0.00 | 90 | 1015.6 |
| 20260506130859 | 15 | 348 | 1.6 | 9.7 | 0.00 | 0.00 | 0.00 | 90 | 1015.6 |
| 20260506130830 | 15 | 338 | 3.2 | 9.7 | 0.00 | 0.00 | 0.00 | 90 | 1015.6 |
| 20260506130807 | 15 | 342 | 3.2 | 9.7 | 0.00 | 0.00 | 0.00 | 90 | 1015.7 |
| 20260506130516 | 15 | 298 | 1.6 | 9.7 | 0.00 | 0.00 | 0.00 | 89 | 1015.7 |
| 20260506130414 | 15 | 348 | 3.2 | 9.7 | 0.00 | 0.00 | 0.00 | 89 | 1015.7 |
| 20260506130312 | 15 | 339 | 3.2 | 9.7 | 0.00 | 0.00 | 0.00 | 89 | 1015.7 |
| 20260506130215 | 15 | 340 | 1.6 | 9.7 | 0.00 | 0.00 | 0.00 | 89 | 1015.7 |
| 20260506130111 | 15 | 335 | 3.2 | 6.4 | 0.00 | 0.00 | 0.00 | 89 | 1015.7 |
| 20260506130011 | 15 | 336 | 3.2 | 6.4 | 0.00 | 0.00 | 0.00 | 89 | 1015.8 |
| 20260506125909 | 15 | 316 | 1.6 | 4.8 | 0.00 | 0.00 | 0.00 | 89 | 1015.8 |
| 20260506125813 | 15 | 332 | 3.2 | 4.8 | 0.00 | 0.00 | 0.00 | 89 | 1015.8 |
| 20260506125709 | 15 | 323 | 3.2 | 4.8 | 0.00 | 0.00 | 0.00 | 89 | 1015.8 |
| 20260506125609 | 15 | 313 | 3.2 | 4.8 | 0.00 | 0.00 | 0.00 | 89 | 1015.9 |
| 20260506125513 | 15 | 319 | 1.6 | 4.8 | 0.00 | 0.00 | 0.00 | 89 | 1015.8 |
| 20260506125410 | 15 | 304 | 1.6 | 4.8 | 0.00 | 0.00 | 0.00 | 89 | 1015.9 |
| 20260506125309 | 15 | 288 | 1.6 | 3.2 | 0.00 | 0.00 | 0.00 | 89 | 1015.8 |
| 20260506125215 | 15 | 288 | 0.0 | 3.2 | 0.00 | 0.00 | 0.00 | 89 | 1015.9 |
| 20260506125110 | 15 | 302 | 0.0 | 3.2 | 0.00 | 0.00 | 0.00 | 89 | 1015.9 |
| 20260506125012 | 15 | 302 | 0.0 | 3.2 | 0.00 | 0.00 | 0.00 | 89 | 1015.9 |
| 20260506124908 | 15 | 302 | 0.0 | 3.2 | 0.00 | 0.00 | 0.00 | 89 | 1016.0 |
| 20260506124806 | 15 | 302 | 0.0 | 3.2 | 0.00 | 0.00 | 0.00 | 89 | 1015.9 |
| 20260506124711 | 15 | 302 | 0.0 | 3.2 | 0.00 | 0.00 | 0.00 | 89 | 1015.9 |
| 20260506124608 | 15 | 290 | 0.0 | 3.2 | 0.00 | 0.00 | 0.00 | 89 | 1015.9 |
| 20260506124501 | 15 | 290 | 0.0 | 3.2 | 0.00 | 0.00 | 0.00 | 89 | 1016.0 |
| 20260506124400 | 15 | 290 | 0.0 | 4.8 | 0.00 | 0.00 | 0.00 | 89 | 1016.0 |
| 20260506124259 | 15 | 290 | 1.6 | 4.8 | 0.00 | 0.00 | 0.00 | 89 | 1016.0 |
| 20260506124157 | 15 | 290 | 1.6 | 4.8 | 0.00 | 0.00 | 0.00 | 89 | 1016.0 |
| 20260506124059 | 15 | 290 | 1.6 | 6.4 | 0.00 | 0.00 | 0.00 | 89 | 1016.0 |
| 20260506123953 | 15 | 297 | 1.6 | 6.4 | 0.00 | 0.00 | 0.00 | 89 | 1016.0 |
| 20260506123857 | 15 | 297 | 1.6 | 6.4 | 0.00 | 0.00 | 0.00 | 89 | 1016.0 |
| 20260506123750 | 15 | 292 | 1.6 | 6.4 | 0.00 | 0.00 | 0.00 | 89 | 1016.1 |
| 20260506123652 | 15 | 290 | 1.6 | 6.4 | 0.00 | 0.00 | 0.00 | 89 | 1016.2 |
| 20260506123546 | 15 | 298 | 3.2 | 6.4 | 0.00 | 0.00 | 0.00 | 89 | 1016.1 |
| 20260506123446 | 15 | 290 | 1.6 | 6.4 | 0.00 | 0.00 | 0.00 | 89 | 1016.2 |
| 20260506123339 | 15 | 298 | 1.6 | 6.4 | 0.00 | 0.00 | 0.00 | 89 | 1016.2 |
| 20260506123242 | 15 | 298 | 1.6 | 6.4 | 0.00 | 0.00 | 0.00 | 89 | 1016.2 |
| 20260506123137 | 15 | 297 | 1.6 | 6.4 | 0.00 | 0.00 | 0.00 | 89 | 1016.2 |
| 20260506123044 | 15 | 296 | 1.6 | 6.4 | 0.00 | 0.00 | 0.00 | 89 | 1016.2 |
| 20260506122947 | 15 | 290 | 3.2 | 6.4 | 0.00 | 0.00 | 0.00 | 89 | 1016.2 |
| 20260506122920 | 15 | 281 | 1.6 | 6.4 | 0.00 | 0.00 | 0.00 | 88 | 1016.3 |
| 20260506122850 | 15 | 285 | 1.6 | 6.4 | 0.00 | 0.00 | 0.00 | 88 | 1016.3 |
| 20260506122823 | 15 | 282 | 3.2 | 6.4 | 0.00 | 0.00 | 0.00 | 88 | 1016.4 |
| 20260506122755 | 15 | 282 | 3.2 | 6.4 | 0.00 | 0.00 | 0.00 | 88 | 1016.4 |
| 20260506122438 | 15 | 277 | 3.2 | 6.4 | 0.00 | 0.00 | 0.00 | 88 | 1016.4 |
| 20260506122340 | 15 | 266 | 3.2 | 6.4 | 0.00 | 0.00 | 0.00 | 88 | 1016.5 |
| 20260506122240 | 15 | 273 | 3.2 | 4.8 | 0.00 | 0.00 | 0.00 | 88 | 1016.4 |
| 20260506122143 | 15 | 268 | 3.2 | 4.8 | 0.00 | 0.00 | 0.00 | 88 | 1016.5 |
| 20260506121938 | 15 | 266 | 1.6 | 3.2 | 0.00 | 0.00 | 0.00 | 88 | 1016.4 |
| 20260506121906 | 15 | 264 | 1.6 | 3.2 | 0.00 | 0.00 | 0.00 | 88 | 1016.5 |
| 20260506121846 | 15 | 266 | 1.6 | 3.2 | 0.00 | 0.00 | 0.00 | 88 | 1016.5 |
| 20260506121821 | 15 | 266 | 1.6 | 3.2 | 0.00 | 0.00 | 0.00 | 88 | 1016.5 |
| 20260506121751 | 15 | 273 | 1.6 | 4.8 | 0.00 | 0.00 | 0.00 | 88 | 1016.5 |
| 20260506121436 | 15 | 273 | 1.6 | 4.8 | 0.00 | 0.00 | 0.00 | 88 | 1016.5 |
| 20260506121336 | 15 | 271 | 1.6 | 4.8 | 0.00 | 0.00 | 0.00 | 88 | 1016.5 |
| 20260506121238 | 15 | 263 | 1.6 | 4.8 | 0.00 | 0.00 | 0.00 | 88 | 1016.5 |
| 20260506121139 | 15 | 264 | 1.6 | 4.8 | 0.00 | 0.00 | 0.00 | 87 | 1016.5 |
| 20260506120937 | 15 | 269 | 1.6 | 4.8 | 0.00 | 0.00 | 0.00 | 87 | 1016.6 |
| 20260506120837 | 15 | 269 | 3.2 | 4.8 | 0.00 | 0.00 | 0.00 | 87 | 1016.6 |
| 20260506120735 | 15 | 269 | 3.2 | 4.8 | 0.00 | 0.00 | 0.00 | 87 | 1016.7 |
| 20260506120634 | 15 | 264 | 1.6 | 4.8 | 0.00 | 0.00 | 0.00 | 87 | 1016.5 |
| 20260506120532 | 15 | 227 | 1.6 | 3.2 | 0.00 | 0.00 | 0.00 | 87 | 1016.5 |
| 20260506120429 | 15 | 240 | 3.2 | 3.2 | 0.00 | 0.00 | 0.00 | 87 | 1016.6 |
| 20260506120324 | 15 | 239 | 1.6 | 3.2 | 0.00 | 0.00 | 0.00 | 87 | 1016.6 |
| 20260506120217 | 15 | 250 | 1.6 | 3.2 | 0.00 | 0.00 | 0.00 | 87 | 1016.6 |
| 20260506120114 | 15 | 236 | 1.6 | 3.2 | 0.00 | 0.00 | 0.00 | 87 | 1016.6 |
| 20260506120013 | 15 | 241 | 1.6 | 3.2 | 0.00 | 0.00 | 0.00 | 87 | 1016.5 |
| 20260506115911 | 15 | 351 | 1.6 | 3.2 | 0.00 | 0.00 | 0.00 | 87 | 1016.6 |
| 20260506115813 | 15 | 351 | 0.0 | 3.2 | 0.00 | 0.00 | 0.00 | 87 | 1016.6 |
| 20260506115710 | 15 | 351 | 0.0 | 3.2 | 0.00 | 0.00 | 0.00 | 87 | 1016.5 |
| 20260506115610 | 15 | 351 | 0.0 | 3.2 | 0.00 | 0.00 | 0.00 | 87 | 1016.6 |
| 20260506115511 | 15 | 351 | 0.0 | 3.2 | 0.00 | 0.00 | 0.00 | 87 | 1016.6 |
| 20260506115409 | 15 | 351 | 1.6 | 3.2 | 0.00 | 0.00 | 0.00 | 87 | 1016.6 |
| 20260506115310 | 15 | 351 | 1.6 | 3.2 | 0.00 | 0.00 | 0.00 | 87 | 1016.5 |
| 20260506115210 | 15 | 351 | 0.0 | 3.2 | 0.00 | 0.00 | 0.00 | 87 | 1016.6 |
| 20260506115113 | 15 | 351 | 0.0 | 1.6 | 0.00 | 0.00 | 0.00 | 87 | 1016.6 |
| 20260506115011 | 15 | 351 | 0.0 | 1.6 | 0.00 | 0.00 | 0.00 | 87 | 1016.6 |
| 20260506114908 | 15 | 351 | 0.0 | 1.6 | 0.00 | 0.00 | 0.00 | 87 | 1016.6 |
| 20260506114815 | 15 | 351 | 0.0 | 1.6 | 0.00 | 0.00 | 0.00 | 87 | 1016.7 |
| 20260506114713 | 15 | 351 | 0.0 | 1.6 | 0.00 | 0.00 | 0.00 | 87 | 1016.6 |
| 20260506114612 | 15 | 351 | 0.0 | 0.0 | 0.00 | 0.00 | 0.00 | 87 | 1016.7 |
| 20260506114511 | 15 | 351 | 0.0 | 0.0 | 0.00 | 0.00 | 0.00 | 87 | 1016.7 |
| 20260506114409 | 15 | 351 | 0.0 | 0.0 | 0.00 | 0.00 | 0.00 | 87 | 1016.7 |
| 20260506114311 | 15 | 351 | 0.0 | 0.0 | 0.00 | 0.00 | 0.00 | 87 | 1016.6 |
| 20260506114209 | 15 | 351 | 0.0 | 0.0 | 0.00 | 0.00 | 0.00 | 87 | 1016.7 |
| 20260506114116 | 15 | 351 | 0.0 | 1.6 | 0.00 | 0.00 | 0.00 | 87 | 1016.7 |
| 20260506114009 | 15 | 351 | 0.0 | 1.6 | 0.00 | 0.00 | 0.00 | 87 | 1016.7 |
| 20260506113913 | 15 | 351 | 0.0 | 1.6 | 0.00 | 0.00 | 0.00 | 87 | 1016.7 |
| 20260506113808 | 15 | 351 | 0.0 | 1.6 | 0.00 | 0.00 | 0.00 | 87 | 1016.7 |
| 20260506113655 | 15 | 351 | 0.0 | 1.6 | 0.00 | 0.00 | 0.00 | 87 | 1016.7 |
| 20260506113557 | 15 | 351 | 0.0 | 1.6 | 0.00 | 0.00 | 0.00 | 87 | 1016.7 |